| time (UTC) | temp F | wind direction | speed knots | gust knots | rain 1hr in | rain 24hr in | rain mn in | humidity % | barometer mb |
| 20260503002541 | 73 | 16 | 3.5 | 9.6 | 0.00 | 0.19 | 0.00 | 50 | 1016.7 |
| 20260503002441 | 73 | 0 | 5.2 | 9.6 | 0.00 | 0.19 | 0.00 | 50 | 1016.6 |
| 20260503002340 | 73 | 32 | 6.1 | 9.6 | 0.00 | 0.19 | 0.00 | 49 | 1016.6 |
| 20260503002239 | 73 | 28 | 5.2 | 9.6 | 0.00 | 0.20 | 0.00 | 49 | 1016.6 |
| 20260503002140 | 73 | 16 | 6.1 | 9.6 | 0.00 | 0.20 | 0.00 | 49 | 1016.6 |
| 20260503002042 | 73 | 31 | 7.0 | 9.6 | 0.00 | 0.20 | 0.00 | 49 | 1016.6 |
| 20260503001940 | 73 | 28 | 5.2 | 8.7 | 0.00 | 0.20 | 0.00 | 49 | 1016.6 |
| 20260503001841 | 73 | 34 | 4.3 | 7.8 | 0.00 | 0.20 | 0.00 | 49 | 1016.6 |
| 20260503001741 | 73 | 27 | 3.5 | 8.7 | 0.00 | 0.20 | 0.00 | 49 | 1016.6 |
| 20260503001641 | 73 | 0 | 4.3 | 8.7 | 0.00 | 0.20 | 0.00 | 49 | 1016.6 |
| 20260503001541 | 73 | 20 | 5.2 | 8.7 | 0.00 | 0.20 | 0.00 | 49 | 1016.6 |
| 20260503001440 | 73 | 10 | 5.2 | 8.7 | 0.00 | 0.20 | 0.00 | 49 | 1016.6 |
| 20260503001340 | 74 | 44 | 4.3 | 11.3 | 0.00 | 0.21 | 0.00 | 49 | 1016.5 |
| 20260503001239 | 74 | 45 | 3.5 | 12.2 | 0.00 | 0.21 | 0.00 | 49 | 1016.5 |
| 20260503001140 | 74 | 7 | 2.6 | 12.2 | 0.00 | 0.21 | 0.00 | 49 | 1016.5 |
| 20260503001042 | 74 | 18 | 3.5 | 12.2 | 0.00 | 0.21 | 0.00 | 49 | 1016.5 |
| 20260503000940 | 74 | 0 | 4.3 | 12.2 | 0.00 | 0.21 | 0.00 | 48 | 1016.5 |
| 20260503000839 | 74 | 17 | 5.2 | 12.2 | 0.00 | 0.22 | 0.00 | 48 | 1016.5 |
| 20260503000739 | 74 | 17 | 4.3 | 12.2 | 0.00 | 0.22 | 0.00 | 48 | 1016.4 |
| 20260503000640 | 74 | 0 | 4.3 | 12.2 | 0.00 | 0.22 | 0.00 | 48 | 1016.4 |
| 20260503000539 | 74 | 18 | 6.1 | 12.2 | 0.00 | 0.23 | 0.00 | 48 | 1016.4 |
| 20260503000440 | 74 | 16 | 8.7 | 12.2 | 0.00 | 0.23 | 0.00 | 47 | 1016.4 |
| 20260503000341 | 74 | 32 | 7.0 | 12.2 | 0.00 | 0.23 | 0.00 | 48 | 1016.5 |
| 20260503000240 | 74 | 38 | 4.3 | 7.8 | 0.00 | 0.23 | 0.00 | 49 | 1016.4 |
| 20260503000140 | 74 | 14 | 4.3 | 7.8 | 0.00 | 0.23 | 0.00 | 49 | 1016.4 |
| 20260503000041 | 74 | 28 | 3.5 | 7.8 | 0.00 | 0.23 | 0.00 | 49 | 1016.4 |
| 20260502235940 | 74 | 28 | 3.5 | 7.8 | 0.00 | 0.24 | 0.00 | 49 | 1016.4 |
| 20260502235839 | 74 | 35 | 4.3 | 9.6 | 0.00 | 0.24 | 0.00 | 48 | 1016.3 |
| 20260502235739 | 74 | 38 | 5.2 | 9.6 | 0.00 | 0.24 | 0.00 | 48 | 1016.3 |
| 20260502235641 | 74 | 30 | 4.3 | 9.6 | 0.00 | 0.24 | 0.00 | 49 | 1016.4 |
| 20260502235540 | 74 | 13 | 3.5 | 10.4 | 0.00 | 0.24 | 0.00 | 48 | 1016.4 |
| 20260502235439 | 74 | 44 | 2.6 | 10.4 | 0.00 | 0.24 | 0.00 | 49 | 1016.3 |
| 20260502235339 | 74 | 18 | 4.3 | 10.4 | 0.00 | 0.24 | 0.00 | 48 | 1016.3 |
| 20260502235240 | 74 | 20 | 5.2 | 10.4 | 0.00 | 0.24 | 0.00 | 48 | 1016.4 |
| 20260502235140 | 74 | 39 | 5.2 | 10.4 | 0.00 | 0.24 | 0.00 | 48 | 1016.4 |
| 20260502235040 | 74 | 41 | 5.2 | 10.4 | 0.00 | 0.24 | 0.00 | 47 | 1016.3 |
| 20260502234940 | 74 | 35 | 5.2 | 10.4 | 0.00 | 0.24 | 0.00 | 47 | 1016.3 |
| 20260502234839 | 74 | 21 | 5.2 | 10.4 | 0.00 | 0.24 | 0.00 | 48 | 1016.4 |
| 20260502234739 | 74 | 0 | 6.1 | 10.4 | 0.00 | 0.24 | 0.00 | 47 | 1016.3 |
| 20260502234639 | 75 | 45 | 7.0 | 10.4 | 0.00 | 0.24 | 0.00 | 46 | 1016.4 |
| 20260502234540 | 75 | 44 | 5.2 | 10.4 | 0.00 | 0.24 | 0.00 | 46 | 1016.4 |
| 20260502234439 | 75 | 0 | 5.2 | 10.4 | 0.00 | 0.24 | 0.00 | 46 | 1016.3 |
| 20260502234339 | 75 | 0 | 5.2 | 10.4 | 0.00 | 0.24 | 0.00 | 46 | 1016.3 |
| 20260502234241 | 75 | 31 | 4.3 | 10.4 | 0.00 | 0.24 | 0.00 | 47 | 1016.4 |
| 20260502234139 | 75 | 39 | 5.2 | 10.4 | 0.00 | 0.24 | 0.00 | 47 | 1016.3 |
| 20260502234038 | 75 | 357 | 5.2 | 10.4 | 0.00 | 0.24 | 0.00 | 47 | 1016.4 |
| 20260502233940 | 75 | 25 | 5.2 | 10.4 | 0.00 | 0.24 | 0.00 | 46 | 1016.3 |
| 20260502233839 | 75 | 327 | 5.2 | 9.6 | 0.00 | 0.24 | 0.00 | 46 | 1016.3 |
| 20260502233740 | 75 | 344 | 4.3 | 8.7 | 0.00 | 0.25 | 0.00 | 47 | 1016.3 |
| 20260502233639 | 75 | 0 | 4.3 | 8.7 | 0.00 | 0.25 | 0.00 | 47 | 1016.3 |
| 20260502233541 | 75 | 331 | 5.2 | 8.7 | 0.00 | 0.25 | 0.00 | 46 | 1016.3 |
| 20260502233439 | 75 | 49 | 5.2 | 8.7 | 0.00 | 0.25 | 0.00 | 46 | 1016.3 |
| 20260502233338 | 75 | 1 | 4.3 | 8.7 | 0.00 | 0.25 | 0.00 | 47 | 1016.3 |
| 20260502233239 | 75 | 0 | 4.3 | 8.7 | 0.00 | 0.26 | 0.00 | 47 | 1016.2 |
| 20260502233139 | 75 | 0 | 4.3 | 8.7 | 0.00 | 0.26 | 0.00 | 47 | 1016.3 |
| 20260502233038 | 75 | 0 | 4.3 | 8.7 | 0.00 | 0.26 | 0.00 | 46 | 1016.3 |
| 20260502232940 | 75 | 350 | 4.3 | 7.8 | 0.00 | 0.26 | 0.00 | 46 | 1016.3 |
| 20260502232839 | 75 | 10 | 5.2 | 8.7 | 0.00 | 0.27 | 0.00 | 46 | 1016.3 |
| 20260502232740 | 75 | 28 | 4.3 | 8.7 | 0.00 | 0.31 | 0.00 | 46 | 1016.4 |
| 20260502232638 | 75 | 7 | 4.3 | 10.4 | 0.00 | 0.31 | 0.00 | 46 | 1016.4 |
| 20260502232541 | 75 | 24 | 4.3 | 13.0 | 0.00 | 0.31 | 0.00 | 46 | 1016.4 |
| 20260502232438 | 75 | 0 | 3.5 | 13.0 | 0.00 | 0.31 | 0.00 | 46 | 1016.4 |
| 20260502232338 | 75 | 0 | 3.5 | 13.0 | 0.00 | 0.31 | 0.00 | 46 | 1016.4 |
| 20260502232239 | 75 | 345 | 3.5 | 13.0 | 0.00 | 0.32 | 0.00 | 46 | 1016.4 |
| 20260502232140 | 75 | 23 | 3.5 | 13.0 | 0.00 | 0.32 | 0.00 | 46 | 1016.3 |
| 20260502232038 | 75 | 0 | 5.2 | 13.0 | 0.00 | 0.33 | 0.00 | 46 | 1016.3 |
| 20260502231932 | 75 | 32 | 5.2 | 13.0 | 0.00 | 0.34 | 0.00 | 46 | 1016.3 |
| 20260502231832 | 75 | 25 | 7.0 | 13.0 | 0.00 | 0.34 | 0.00 | 46 | 1016.3 |
| 20260502231731 | 75 | 30 | 6.1 | 13.0 | 0.00 | 0.34 | 0.00 | 45 | 1016.3 |
| 20260502231632 | 76 | 41 | 3.5 | 12.2 | 0.00 | 0.35 | 0.00 | 46 | 1016.3 |
| 20260502231533 | 75 | 14 | 3.5 | 12.2 | 0.00 | 0.35 | 0.00 | 46 | 1016.3 |
| 20260502231431 | 75 | 23 | 5.2 | 12.2 | 0.00 | 0.35 | 0.00 | 46 | 1016.3 |
| 20260502231331 | 76 | 25 | 5.2 | 12.2 | 0.00 | 0.36 | 0.00 | 46 | 1016.3 |
| 20260502231232 | 76 | 52 | 4.3 | 12.2 | 0.00 | 0.36 | 0.00 | 46 | 1016.3 |
| 20260502231131 | 76 | 351 | 6.1 | 12.2 | 0.00 | 0.36 | 0.00 | 46 | 1016.2 |
| 20260502231032 | 76 | 39 | 7.0 | 12.2 | 0.00 | 0.36 | 0.00 | 46 | 1016.2 |
| 20260502230932 | 76 | 47 | 4.3 | 12.2 | 0.00 | 0.36 | 0.00 | 46 | 1016.2 |
| 20260502230832 | 76 | 38 | 4.3 | 11.3 | 0.00 | 0.36 | 0.00 | 46 | 1016.2 |
| 20260502230732 | 76 | 6 | 5.2 | 11.3 | 0.00 | 0.36 | 0.00 | 46 | 1016.2 |
| 20260502230633 | 75 | 347 | 4.3 | 11.3 | 0.00 | 0.36 | 0.00 | 46 | 1016.2 |
| 20260502230531 | 75 | 0 | 5.2 | 13.0 | 0.00 | 0.36 | 0.00 | 46 | 1016.3 |
| 20260502230431 | 75 | 11 | 7.0 | 13.0 | 0.00 | 0.36 | 0.00 | 45 | 1016.2 |
| 20260502230332 | 75 | 51 | 7.8 | 13.0 | 0.00 | 0.36 | 0.00 | 45 | 1016.3 |
| 20260502230232 | 75 | 47 | 7.8 | 13.0 | 0.00 | 0.36 | 0.00 | 46 | 1016.2 |
| 20260502230131 | 75 | 30 | 7.0 | 13.0 | 0.00 | 0.36 | 0.00 | 45 | 1016.3 |
| 20260502230032 | 75 | 47 | 7.0 | 13.0 | 0.00 | 0.36 | 0.00 | 45 | 1016.2 |
| 20260502225932 | 75 | 39 | 6.1 | 13.0 | 0.00 | 0.36 | 0.00 | 44 | 1016.2 |
| 20260502225831 | 76 | 37 | 7.0 | 13.0 | 0.00 | 0.36 | 0.00 | 45 | 1016.2 |
| 20260502225731 | 76 | 16 | 8.7 | 13.0 | 0.00 | 0.36 | 0.00 | 44 | 1016.3 |
| 20260502225633 | 76 | 358 | 6.1 | 13.0 | 0.00 | 0.36 | 0.00 | 45 | 1016.2 |
| 20260502225532 | 76 | 44 | 4.3 | 11.3 | 0.00 | 0.36 | 0.00 | 44 | 1016.2 |
| 20260502225432 | 76 | 338 | 5.2 | 11.3 | 0.00 | 0.36 | 0.00 | 45 | 1016.2 |
| 20260502225331 | 76 | 7 | 5.2 | 11.3 | 0.00 | 0.36 | 0.00 | 45 | 1016.2 |
| 20260502225231 | 76 | 351 | 5.2 | 11.3 | 0.00 | 0.36 | 0.00 | 44 | 1016.2 |
| 20260502225131 | 76 | 6 | 6.1 | 11.3 | 0.00 | 0.36 | 0.00 | 44 | 1016.2 |
| 20260502225031 | 76 | 21 | 6.1 | 11.3 | 0.00 | 0.36 | 0.00 | 45 | 1016.2 |
| 20260502224930 | 76 | 17 | 6.1 | 10.4 | 0.00 | 0.36 | 0.00 | 46 | 1016.1 |
| 20260502224827 | 76 | 30 | 5.2 | 10.4 | 0.00 | 0.36 | 0.00 | 45 | 1016.1 |
| 20260502224725 | 76 | 4 | 5.2 | 10.4 | 0.00 | 0.36 | 0.00 | 44 | 1016.1 |
| 20260502224624 | 76 | 337 | 4.3 | 10.4 | 0.00 | 0.36 | 0.00 | 44 | 1016.1 |
| 20260502224522 | 76 | 3 | 4.3 | 10.4 | 0.00 | 0.36 | 0.00 | 45 | 1016.2 |
| 20260502224421 | 76 | 324 | 5.2 | 10.4 | 0.00 | 0.36 | 0.00 | 45 | 1016.2 |
| 20260502224319 | 76 | 41 | 4.3 | 10.4 | 0.00 | 0.36 | 0.00 | 44 | 1016.2 |
| 20260502224218 | 76 | 30 | 4.3 | 12.2 | 0.00 | 0.36 | 0.00 | 44 | 1016.2 |
| 20260502224116 | 76 | 0 | 5.2 | 12.2 | 0.00 | 0.36 | 0.00 | 45 | 1016.1 |
| 20260502224014 | 76 | 355 | 6.1 | 12.2 | 0.00 | 0.36 | 0.00 | 46 | 1016.1 |
| 20260502223916 | 76 | 14 | 7.0 | 12.2 | 0.00 | 0.36 | 0.00 | 45 | 1016.1 |
| 20260502223813 | 76 | 348 | 6.1 | 12.2 | 0.00 | 0.36 | 0.00 | 45 | 1016.2 |
| 20260502223710 | 76 | 16 | 5.2 | 12.2 | 0.00 | 0.36 | 0.00 | 45 | 1016.2 |
| 20260502223609 | 76 | 38 | 4.3 | 12.2 | 0.00 | 0.36 | 0.00 | 45 | 1016.2 |
| 20260502223508 | 76 | 54 | 3.5 | 12.2 | 0.00 | 0.36 | 0.00 | 45 | 1016.2 |
| 20260502223406 | 76 | 25 | 6.1 | 13.0 | 0.00 | 0.36 | 0.00 | 45 | 1016.2 |
| 20260502223306 | 76 | 0 | 6.1 | 13.0 | 0.00 | 0.36 | 0.00 | 45 | 1016.3 |
| 20260502223202 | 76 | 13 | 5.2 | 14.8 | 0.00 | 0.36 | 0.00 | 45 | 1016.3 |
| 20260502223103 | 76 | 8 | 5.2 | 14.8 | 0.00 | 0.36 | 0.00 | 45 | 1016.3 |
| 20260502223003 | 76 | 4 | 6.1 | 14.8 | 0.00 | 0.36 | 0.00 | 45 | 1016.2 |
| 20260502222902 | 76 | 20 | 7.0 | 14.8 | 0.00 | 0.36 | 0.00 | 45 | 1016.3 |
| 20260502222801 | 76 | 7 | 7.8 | 14.8 | 0.00 | 0.36 | 0.00 | 45 | 1016.3 |
| 20260502222702 | 76 | 28 | 8.7 | 14.8 | 0.00 | 0.36 | 0.00 | 45 | 1016.3 |
| 20260502222603 | 76 | 17 | 9.6 | 14.8 | 0.00 | 0.36 | 0.00 | 44 | 1016.3 |
| 20260502222502 | 76 | 37 | 9.6 | 14.8 | 0.00 | 0.36 | 0.00 | 44 | 1016.4 |
| 20260502222402 | 77 | 24 | 9.6 | 14.8 | 0.00 | 0.36 | 0.00 | 44 | 1016.3 |
| 20260502222305 | 77 | 32 | 8.7 | 14.8 | 0.00 | 0.36 | 0.00 | 44 | 1016.4 |
| 20260502222202 | 77 | 23 | 6.1 | 13.0 | 0.00 | 0.36 | 0.00 | 44 | 1016.3 |
| 20260502222103 | 77 | 39 | 5.2 | 13.0 | 0.00 | 0.36 | 0.00 | 43 | 1016.3 |
| 20260502222002 | 78 | 14 | 4.3 | 7.8 | 0.00 | 0.36 | 0.00 | 43 | 1016.4 |
| 20260502221903 | 78 | 6 | 2.6 | 7.8 | 0.00 | 0.36 | 0.00 | 44 | 1016.4 |
| 20260502221803 | 78 | 0 | 3.5 | 8.7 | 0.00 | 0.36 | 0.00 | 45 | 1016.4 |
| 20260502221703 | 77 | 62 | 2.6 | 8.7 | 0.00 | 0.36 | 0.00 | 45 | 1016.4 |
| 20260502221603 | 78 | 17 | 1.7 | 8.7 | 0.00 | 0.37 | 0.00 | 44 | 1016.3 |
| 20260502221504 | 77 | 14 | 2.6 | 8.7 | 0.00 | 0.37 | 0.00 | 45 | 1016.3 |
| 20260502221402 | 77 | 0 | 2.6 | 8.7 | 0.00 | 0.37 | 0.00 | 46 | 1016.4 |
| 20260502221300 | 77 | 23 | 3.5 | 8.7 | 0.00 | 0.37 | 0.00 | 46 | 1016.4 |
| 20260502221200 | 76 | 343 | 5.2 | 11.3 | 0.00 | 0.37 | 0.00 | 46 | 1016.5 |
| 20260502221100 | 76 | 7 | 4.3 | 12.2 | 0.00 | 0.37 | 0.00 | 46 | 1016.4 |
| 20260502220959 | 77 | 321 | 5.2 | 12.2 | 0.00 | 0.37 | 0.00 | 46 | 1016.4 |
| 20260502220857 | 77 | 11 | 6.1 | 12.2 | 0.00 | 0.37 | 0.00 | 46 | 1016.4 |
| 20260502220757 | 77 | 14 | 4.3 | 12.2 | 0.00 | 0.37 | 0.00 | 46 | 1016.4 |
| 20260502220654 | 76 | 0 | 3.5 | 12.2 | 0.00 | 0.37 | 0.00 | 46 | 1016.4 |
| 20260502220553 | 76 | 13 | 3.5 | 12.2 | 0.00 | 0.37 | 0.00 | 46 | 1016.3 |
| 20260502220452 | 76 | 329 | 4.3 | 12.2 | 0.00 | 0.37 | 0.00 | 46 | 1016.3 |
| 20260502220350 | 76 | 355 | 7.0 | 12.2 | 0.00 | 0.37 | 0.00 | 45 | 1016.4 |
| 20260502220249 | 76 | 333 | 8.7 | 12.2 | 0.00 | 0.37 | 0.00 | 45 | 1016.4 |
| 20260502220146 | 76 | 317 | 7.8 | 12.2 | 0.00 | 0.37 | 0.00 | 45 | 1016.4 |
| 20260502220046 | 77 | 358 | 7.0 | 12.2 | 0.00 | 0.37 | 0.00 | 45 | 1016.4 |
| 20260502215946 | 77 | 316 | 7.8 | 10.4 | 0.00 | 0.37 | 0.00 | 45 | 1016.3 |
| 20260502215846 | 76 | 0 | 7.0 | 13.0 | 0.00 | 0.37 | 0.00 | 44 | 1016.4 |
| 20260502215743 | 77 | 38 | 5.2 | 13.0 | 0.00 | 0.37 | 0.00 | 46 | 1016.3 |
| 20260502215641 | 77 | 17 | 4.3 | 13.0 | 0.00 | 0.37 | 0.00 | 46 | 1016.3 |
| 20260502215540 | 76 | 24 | 4.3 | 13.0 | 0.00 | 0.37 | 0.00 | 45 | 1016.4 |
| 20260502215438 | 76 | 319 | 5.2 | 13.0 | 0.00 | 0.37 | 0.00 | 46 | 1016.4 |
| 20260502215337 | 76 | 355 | 7.8 | 13.0 | 0.00 | 0.37 | 0.00 | 45 | 1016.4 |
| 20260502215238 | 76 | 17 | 7.0 | 13.0 | 0.00 | 0.37 | 0.00 | 45 | 1016.3 |
| 20260502215136 | 76 | 13 | 7.0 | 13.0 | 0.00 | 0.38 | 0.00 | 44 | 1016.4 |
| 20260502215036 | 76 | 21 | 8.7 | 13.0 | 0.00 | 0.38 | 0.00 | 44 | 1016.4 |
| 20260502214937 | 77 | 355 | 8.7 | 13.0 | 0.00 | 0.38 | 0.00 | 44 | 1016.4 |
| 20260502214838 | 77 | 3 | 5.2 | 13.0 | 0.00 | 0.38 | 0.00 | 45 | 1016.4 |
| 20260502214737 | 76 | 20 | 3.5 | 13.0 | 0.00 | 0.38 | 0.00 | 45 | 1016.4 |
| 20260502214637 | 76 | 7 | 3.5 | 13.0 | 0.00 | 0.39 | 0.00 | 45 | 1016.5 |
| 20260502214536 | 76 | 37 | 5.2 | 13.0 | 0.00 | 0.39 | 0.00 | 45 | 1016.5 |
| 20260502214437 | 77 | 3 | 7.0 | 13.0 | 0.00 | 0.39 | 0.00 | 44 | 1016.4 |
| 20260502214337 | 77 | 34 | 7.0 | 13.0 | 0.00 | 0.40 | 0.00 | 45 | 1016.5 |
| 20260502214236 | 77 | 353 | 7.0 | 13.0 | 0.00 | 0.40 | 0.00 | 44 | 1016.5 |
| 20260502214137 | 77 | 0 | 7.0 | 13.0 | 0.00 | 0.40 | 0.00 | 44 | 1016.5 |
| 20260502214036 | 77 | 14 | 4.3 | 10.4 | 0.00 | 0.40 | 0.00 | 44 | 1016.5 |
| 20260502213936 | 77 | 353 | 1.7 | 6.1 | 0.00 | 0.41 | 0.00 | 43 | 1016.5 |
| 20260502213836 | 76 | 11 | 2.6 | 8.7 | 0.00 | 0.41 | 0.00 | 44 | 1016.5 |
| 20260502213737 | 76 | 23 | 3.5 | 12.2 | 0.00 | 0.42 | 0.00 | 43 | 1016.4 |
| 20260502213636 | 76 | 24 | 3.5 | 12.2 | 0.00 | 0.42 | 0.00 | 43 | 1016.5 |
| 20260502213536 | 77 | 0 | 3.5 | 12.2 | 0.00 | 0.42 | 0.00 | 43 | 1016.5 |
| 20260502213437 | 77 | 34 | 2.6 | 12.2 | 0.00 | 0.43 | 0.00 | 44 | 1016.5 |
| 20260502213338 | 76 | 299 | 2.6 | 12.2 | 0.00 | 0.43 | 0.00 | 44 | 1016.5 |
| 20260502213236 | 76 | 296 | 4.3 | 12.2 | 0.00 | 0.44 | 0.00 | 44 | 1016.5 |
| 20260502213136 | 77 | 307 | 4.3 | 12.2 | 0.00 | 0.44 | 0.00 | 44 | 1016.6 |
| 20260502213038 | 77 | 351 | 5.2 | 12.2 | 0.00 | 0.44 | 0.00 | 44 | 1016.5 |
| 20260502212939 | 77 | 327 | 7.8 | 12.2 | 0.00 | 0.44 | 0.00 | 43 | 1016.5 |
| 20260502212835 | 78 | 357 | 6.1 | 12.2 | 0.00 | 0.45 | 0.00 | 44 | 1016.5 |
| 20260502212736 | 78 | 357 | 2.6 | 10.4 | 0.00 | 0.45 | 0.00 | 46 | 1016.6 |
| 20260502212636 | 78 | 320 | 2.6 | 10.4 | 0.00 | 0.45 | 0.00 | 46 | 1016.5 |
| 20260502212535 | 78 | 331 | 2.6 | 10.4 | 0.00 | 0.45 | 0.00 | 46 | 1016.5 |
| 20260502212437 | 77 | 17 | 3.5 | 10.4 | 0.00 | 0.45 | 0.00 | 45 | 1016.6 |
| 20260502212337 | 78 | 42 | 4.3 | 10.4 | 0.00 | 0.45 | 0.00 | 47 | 1016.5 |
| 20260502212237 | 77 | 0 | 5.2 | 10.4 | 0.00 | 0.45 | 0.00 | 45 | 1016.5 |
| 20260502212135 | 77 | 4 | 6.1 | 10.4 | 0.00 | 0.45 | 0.00 | 45 | 1016.5 |
| 20260502212035 | 77 | 11 | 5.2 | 10.4 | 0.00 | 0.45 | 0.00 | 45 | 1016.5 |
| 20260502211936 | 77 | 345 | 6.1 | 10.4 | 0.00 | 0.45 | 0.00 | 46 | 1016.5 |
| 20260502211836 | 77 | 355 | 5.2 | 9.6 | 0.00 | 0.45 | 0.00 | 45 | 1016.5 |
| 20260502211738 | 77 | 343 | 2.6 | 11.3 | 0.00 | 0.46 | 0.00 | 45 | 1016.5 |
| 20260502211636 | 76 | 28 | 2.6 | 11.3 | 0.00 | 0.46 | 0.00 | 45 | 1016.5 |
| 20260502211536 | 76 | 307 | 3.5 | 11.3 | 0.00 | 0.46 | 0.00 | 45 | 1016.5 |
| 20260502211435 | 76 | 283 | 3.5 | 11.3 | 0.00 | 0.46 | 0.00 | 45 | 1016.5 |
| 20260502211338 | 77 | 305 | 3.5 | 12.2 | 0.00 | 0.46 | 0.00 | 45 | 1016.6 |
| 20260502211236 | 77 | 319 | 3.5 | 12.2 | 0.00 | 0.46 | 0.00 | 45 | 1016.6 |
| 20260502211136 | 77 | 338 | 3.5 | 12.2 | 0.00 | 0.47 | 0.00 | 44 | 1016.6 |
| 20260502211035 | 76 | 327 | 4.3 | 12.2 | 0.00 | 0.47 | 0.00 | 45 | 1016.6 |
| 20260502210937 | 76 | 336 | 6.1 | 12.2 | 0.00 | 0.47 | 0.00 | 45 | 1016.7 |
| 20260502210835 | 76 | 331 | 7.8 | 12.2 | 0.00 | 0.47 | 0.00 | 45 | 1016.7 |
| 20260502210735 | 76 | 341 | 7.0 | 12.2 | 0.00 | 0.48 | 0.00 | 46 | 1016.6 |
| 20260502210636 | 76 | 16 | 6.1 | 12.2 | 0.00 | 0.48 | 0.00 | 45 | 1016.7 |
| 20260502210536 | 77 | 14 | 6.1 | 12.2 | 0.00 | 0.48 | 0.00 | 46 | 1016.7 |
| 20260502210436 | 77 | 7 | 7.0 | 12.2 | 0.00 | 0.48 | 0.00 | 46 | 1016.7 |
| 20260502210336 | 76 | 21 | 6.1 | 12.2 | 0.00 | 0.48 | 0.00 | 46 | 1016.7 |
| 20260502210236 | 76 | 348 | 5.2 | 12.2 | 0.00 | 0.48 | 0.00 | 45 | 1016.7 |
| 20260502210135 | 76 | 23 | 7.0 | 12.2 | 0.00 | 0.48 | 0.00 | 44 | 1016.7 |
| 20260502210035 | 77 | 8 | 7.0 | 12.2 | 0.00 | 0.48 | 0.00 | 46 | 1016.6 |
| 20260502205936 | 77 | 14 | 5.2 | 11.3 | 0.00 | 0.49 | 0.00 | 46 | 1016.7 |
| 20260502205835 | 77 | 353 | 3.5 | 11.3 | 0.00 | 0.49 | 0.00 | 46 | 1016.7 |
| 20260502205735 | 77 | 63 | 2.6 | 11.3 | 0.00 | 0.49 | 0.00 | 44 | 1016.6 |
| 20260502205636 | 77 | 0 | 4.3 | 11.3 | 0.00 | 0.50 | 0.00 | 45 | 1016.7 |
| 20260502205536 | 77 | 337 | 6.1 | 11.3 | 0.00 | 0.50 | 0.00 | 44 | 1016.7 |
| 20260502205435 | 77 | 343 | 3.5 | 11.3 | 0.00 | 0.50 | 0.00 | 45 | 1016.7 |
| 20260502205335 | 77 | 351 | 3.5 | 12.2 | 0.00 | 0.51 | 0.00 | 45 | 1016.7 |
| 20260502205237 | 77 | 45 | 4.3 | 12.2 | 0.00 | 0.51 | 0.00 | 45 | 1016.7 |
| 20260502205135 | 77 | 11 | 5.2 | 12.2 | 0.00 | 0.51 | 0.00 | 45 | 1016.6 |
| 20260502205036 | 77 | 8 | 5.2 | 12.2 | 0.00 | 0.52 | 0.00 | 45 | 1016.7 |
| 20260502204937 | 76 | 324 | 4.3 | 12.2 | 0.00 | 0.52 | 0.00 | 44 | 1016.6 |
| 20260502204836 | 76 | 344 | 5.2 | 12.2 | 0.00 | 0.53 | 0.00 | 43 | 1016.7 |
| 20260502204735 | 76 | 24 | 7.0 | 12.2 | 0.00 | 0.53 | 0.00 | 43 | 1016.7 |
| 20260502204635 | 76 | 35 | 7.0 | 12.2 | 0.00 | 0.54 | 0.00 | 44 | 1016.8 |
| 20260502204538 | 76 | 330 | 7.8 | 12.2 | 0.00 | 0.54 | 0.00 | 44 | 1016.7 |
| 20260502204435 | 76 | 32 | 7.0 | 12.2 | 0.00 | 0.54 | 0.00 | 43 | 1016.7 |
| 20260502204335 | 77 | 7 | 7.8 | 12.2 | 0.00 | 0.54 | 0.00 | 43 | 1016.8 |
| 20260502204237 | 77 | 355 | 7.0 | 12.2 | 0.00 | 0.55 | 0.00 | 44 | 1016.8 |
| 20260502204135 | 77 | 24 | 6.1 | 12.2 | 0.00 | 0.55 | 0.00 | 43 | 1016.8 |
| 20260502204035 | 77 | 347 | 7.0 | 12.2 | 0.00 | 0.56 | 0.00 | 43 | 1016.8 |
| 20260502203935 | 77 | 49 | 7.0 | 12.2 | 0.00 | 0.56 | 0.00 | 43 | 1016.7 |
| 20260502203838 | 77 | 21 | 6.1 | 12.2 | 0.00 | 0.57 | 0.00 | 45 | 1016.8 |
| 20260502203735 | 77 | 18 | 6.1 | 12.2 | 0.00 | 0.58 | 0.00 | 45 | 1016.8 |
| 20260502203635 | 77 | 350 | 5.2 | 12.2 | 0.00 | 0.58 | 0.00 | 45 | 1016.8 |
| 20260502203536 | 77 | 344 | 6.1 | 12.2 | 0.00 | 0.58 | 0.00 | 44 | 1016.8 |
| 20260502203435 | 77 | 35 | 5.2 | 12.2 | 0.00 | 0.59 | 0.00 | 44 | 1016.9 |
| 20260502203335 | 77 | 0 | 5.2 | 10.4 | 0.00 | 0.59 | 0.00 | 44 | 1016.8 |
| 20260502203236 | 77 | 324 | 6.1 | 11.3 | 0.00 | 0.59 | 0.00 | 46 | 1016.9 |
| 20260502203136 | 76 | 37 | 5.2 | 11.3 | 0.00 | 0.59 | 0.00 | 46 | 1016.8 |
| 20260502203035 | 76 | 23 | 6.1 | 11.3 | 0.00 | 0.60 | 0.00 | 46 | 1016.9 |
| 20260502202935 | 76 | 23 | 5.2 | 11.3 | 0.00 | 0.61 | 0.00 | 46 | 1016.9 |
| 20260502202836 | 76 | 0 | 3.5 | 11.3 | 0.00 | 0.61 | 0.00 | 46 | 1016.9 |
| 20260502202735 | 76 | 31 | 3.5 | 11.3 | 0.00 | 0.61 | 0.00 | 46 | 1016.8 |
| 20260502202634 | 75 | 18 | 4.3 | 11.3 | 0.00 | 0.61 | 0.00 | 45 | 1016.8 |
| 20260502202536 | 76 | 10 | 6.1 | 11.3 | 0.00 | 0.61 | 0.00 | 45 | 1016.9 |
| 20260502202435 | 76 | 21 | 7.0 | 11.3 | 0.00 | 0.61 | 0.00 | 45 | 1017.0 |
| 20260502202334 | 76 | 14 | 7.8 | 11.3 | 0.00 | 0.61 | 0.00 | 45 | 1017.0 |
| 20260502202235 | 76 | 10 | 5.2 | 13.0 | 0.00 | 0.61 | 0.00 | 45 | 1016.9 |
| 20260502202136 | 76 | 0 | 3.5 | 14.8 | 0.00 | 0.62 | 0.00 | 44 | 1016.9 |
| 20260502202034 | 76 | 99 | 4.3 | 14.8 | 0.00 | 0.62 | 0.00 | 43 | 1017.0 |
| 20260502201935 | 76 | 14 | 6.1 | 14.8 | 0.00 | 0.62 | 0.00 | 44 | 1017.0 |
| 20260502201835 | 76 | 4 | 7.0 | 14.8 | 0.00 | 0.62 | 0.00 | 43 | 1017.0 |
| 20260502201735 | 76 | 334 | 7.0 | 14.8 | 0.00 | 0.63 | 0.00 | 44 | 1017.0 |
| 20260502201634 | 76 | 353 | 7.0 | 14.8 | 0.00 | 0.63 | 0.00 | 44 | 1016.9 |
| 20260502201535 | 76 | 0 | 5.2 | 14.8 | 0.00 | 0.63 | 0.00 | 46 | 1017.0 |
| 20260502201435 | 76 | 35 | 6.1 | 14.8 | 0.00 | 0.63 | 0.00 | 46 | 1017.0 |
| 20260502201334 | 76 | 24 | 7.8 | 14.8 | 0.00 | 0.64 | 0.00 | 47 | 1017.0 |
| 20260502201234 | 76 | 343 | 7.0 | 14.8 | 0.00 | 0.64 | 0.00 | 46 | 1017.0 |
| 20260502201135 | 75 | 51 | 6.1 | 12.2 | 0.00 | 0.64 | 0.00 | 47 | 1016.9 |
| 20260502201034 | 75 | 338 | 6.1 | 12.2 | 0.00 | 0.64 | 0.00 | 46 | 1016.9 |
| 20260502200934 | 75 | 324 | 6.1 | 12.2 | 0.00 | 0.64 | 0.00 | 46 | 1017.0 |
| 20260502200834 | 75 | 305 | 7.0 | 12.2 | 0.00 | 0.64 | 0.00 | 47 | 1017.0 |
| 20260502200735 | 75 | 305 | 7.8 | 12.2 | 0.00 | 0.64 | 0.00 | 46 | 1017.0 |
| 20260502200634 | 75 | 331 | 7.0 | 13.9 | 0.00 | 0.64 | 0.00 | 46 | 1017.0 |
| 20260502200534 | 75 | 316 | 6.1 | 13.9 | 0.00 | 0.64 | 0.00 | 46 | 1017.0 |
| 20260502200435 | 76 | 316 | 5.2 | 13.9 | 0.00 | 0.64 | 0.00 | 46 | 1017.1 |
| 20260502200334 | 76 | 321 | 6.1 | 13.9 | 0.00 | 0.64 | 0.00 | 45 | 1017.0 |
| 20260502200235 | 76 | 320 | 6.1 | 13.9 | 0.00 | 0.64 | 0.00 | 46 | 1017.0 |
| 20260502200134 | 76 | 327 | 5.2 | 13.9 | 0.00 | 0.64 | 0.00 | 46 | 1017.1 |
| 20260502200036 | 76 | 10 | 5.2 | 13.9 | 0.00 | 0.64 | 0.00 | 44 | 1017.1 |
| 20260502195933 | 76 | 350 | 5.2 | 13.9 | 0.00 | 0.64 | 0.00 | 44 | 1017.1 |
| 20260502195834 | 76 | 18 | 7.0 | 13.9 | 0.00 | 0.64 | 0.00 | 44 | 1017.1 |
| 20260502195735 | 77 | 30 | 7.8 | 13.9 | 0.00 | 0.64 | 0.00 | 46 | 1017.2 |
| 20260502195634 | 77 | 21 | 4.3 | 11.3 | 0.00 | 0.64 | 0.00 | 46 | 1017.2 |
| 20260502195534 | 76 | 0 | 2.6 | 11.3 | 0.00 | 0.64 | 0.00 | 46 | 1017.1 |
| 20260502195434 | 76 | 6 | 2.6 | 13.9 | 0.00 | 0.64 | 0.00 | 46 | 1017.2 |
| 20260502195336 | 76 | 333 | 5.2 | 13.9 | 0.00 | 0.65 | 0.00 | 45 | 1017.1 |
| 20260502195234 | 76 | 336 | 7.0 | 13.9 | 0.00 | 0.65 | 0.00 | 44 | 1017.2 |
| 20260502195134 | 76 | 6 | 7.0 | 13.9 | 0.00 | 0.65 | 0.00 | 46 | 1017.3 |
| 20260502195034 | 76 | 3 | 6.1 | 14.8 | 0.00 | 0.65 | 0.00 | 47 | 1017.3 |
| 20260502194934 | 76 | 0 | 5.2 | 14.8 | 0.00 | 0.65 | 0.00 | 47 | 1017.3 |
| 20260502194835 | 76 | 314 | 7.0 | 14.8 | 0.00 | 0.65 | 0.00 | 46 | 1017.3 |
| 20260502194734 | 76 | 338 | 7.8 | 14.8 | 0.00 | 0.66 | 0.00 | 46 | 1017.3 |
| 20260502194636 | 76 | 357 | 8.7 | 14.8 | 0.00 | 0.66 | 0.00 | 45 | 1017.3 |
| 20260502194533 | 76 | 11 | 7.8 | 14.8 | 0.00 | 0.66 | 0.00 | 47 | 1017.3 |
| 20260502194433 | 76 | 0 | 7.0 | 14.8 | 0.00 | 0.66 | 0.00 | 46 | 1017.4 |
| 20260502194334 | 75 | 0 | 7.0 | 14.8 | 0.00 | 0.67 | 0.00 | 46 | 1017.3 |
| 20260502194233 | 75 | 0 | 7.8 | 14.8 | 0.00 | 0.68 | 0.00 | 46 | 1017.4 |
| 20260502194134 | 75 | 0 | 7.0 | 14.8 | 0.00 | 0.68 | 0.00 | 46 | 1017.4 |
| 20260502194033 | 75 | 24 | 6.1 | 16.5 | 0.00 | 0.68 | 0.00 | 46 | 1017.4 |
| 20260502193934 | 76 | 54 | 6.1 | 16.5 | 0.00 | 0.69 | 0.00 | 47 | 1017.4 |
| 20260502193833 | 76 | 28 | 4.3 | 16.5 | 0.00 | 0.69 | 0.00 | 46 | 1017.4 |
| 20260502193733 | 76 | 35 | 6.1 | 16.5 | 0.00 | 0.69 | 0.00 | 46 | 1017.5 |
| 20260502193634 | 76 | 30 | 7.0 | 16.5 | 0.00 | 0.69 | 0.00 | 46 | 1017.6 |
| 20260502193534 | 76 | 37 | 5.2 | 16.5 | 0.00 | 0.69 | 0.00 | 48 | 1017.5 |
| 20260502193434 | 76 | 48 | 5.2 | 16.5 | 0.00 | 0.69 | 0.00 | 48 | 1017.6 |
| 20260502193334 | 76 | 31 | 7.0 | 16.5 | 0.00 | 0.69 | 0.00 | 47 | 1017.6 |
| 20260502193235 | 76 | 333 | 8.7 | 16.5 | 0.00 | 0.69 | 0.00 | 48 | 1017.6 |
| 20260502193133 | 76 | 0 | 7.8 | 16.5 | 0.00 | 0.69 | 0.00 | 48 | 1017.6 |
| 20260502193033 | 75 | 0 | 7.0 | 13.9 | 0.00 | 0.69 | 0.00 | 47 | 1017.6 |
| 20260502192934 | 76 | 345 | 7.8 | 12.2 | 0.00 | 0.70 | 0.00 | 47 | 1017.5 |
| 20260502192834 | 76 | 330 | 7.8 | 12.2 | 0.00 | 0.70 | 0.00 | 48 | 1017.5 |
| 20260502192733 | 76 | 340 | 6.1 | 12.2 | 0.00 | 0.70 | 0.00 | 49 | 1017.6 |
| 20260502192633 | 75 | 355 | 5.2 | 11.3 | 0.00 | 0.70 | 0.00 | 47 | 1017.6 |
| 20260502192533 | 75 | 63 | 7.0 | 11.3 | 0.00 | 0.70 | 0.00 | 47 | 1017.5 |
| 20260502192433 | 75 | 37 | 7.0 | 13.0 | 0.00 | 0.70 | 0.00 | 47 | 1017.6 |
| 20260502192333 | 75 | 49 | 5.2 | 13.9 | 0.00 | 0.70 | 0.00 | 48 | 1017.7 |
| 20260502192234 | 75 | 0 | 3.5 | 15.6 | 0.00 | 0.70 | 0.00 | 48 | 1017.6 |
| 20260502192132 | 75 | 45 | 4.3 | 15.6 | 0.00 | 0.70 | 0.00 | 49 | 1017.7 |
| 20260502192033 | 75 | 47 | 3.5 | 15.6 | 0.00 | 0.70 | 0.00 | 49 | 1017.7 |
| 20260502191934 | 74 | 42 | 2.6 | 15.6 | 0.00 | 0.70 | 0.00 | 48 | 1017.8 |
| 20260502191833 | 74 | 336 | 3.5 | 15.6 | 0.00 | 0.70 | 0.00 | 48 | 1017.7 |
| 20260502191733 | 75 | 327 | 5.2 | 15.6 | 0.00 | 0.70 | 0.00 | 49 | 1017.6 |
| 20260502191633 | 75 | 13 | 8.7 | 15.6 | 0.00 | 0.70 | 0.00 | 49 | 1017.7 |
| 20260502191534 | 75 | 0 | 10.4 | 15.6 | 0.00 | 0.70 | 0.00 | 48 | 1017.9 |
| 20260502191433 | 75 | 42 | 11.3 | 15.6 | 0.00 | 0.70 | 0.00 | 48 | 1017.7 |
| 20260502191333 | 75 | 1 | 10.4 | 15.6 | 0.00 | 0.70 | 0.00 | 48 | 1017.7 |
| 20260502191235 | 75 | 28 | 8.7 | 13.9 | 0.00 | 0.70 | 0.00 | 49 | 1017.7 |
| 20260502191133 | 75 | 45 | 7.8 | 13.9 | 0.00 | 0.70 | 0.00 | 48 | 1017.7 |
| 20260502191033 | 75 | 25 | 7.0 | 13.9 | 0.00 | 0.70 | 0.00 | 48 | 1017.6 |
| 20260502190933 | 75 | 30 | 5.2 | 10.4 | 0.00 | 0.70 | 0.00 | 48 | 1017.7 |
| 20260502190835 | 75 | 0 | 6.1 | 10.4 | 0.00 | 0.70 | 0.00 | 49 | 1017.7 |
| 20260502190732 | 75 | 0 | 7.0 | 11.3 | 0.00 | 0.70 | 0.00 | 48 | 1017.8 |
| 20260502190632 | 75 | 24 | 7.0 | 11.3 | 0.00 | 0.70 | 0.00 | 47 | 1017.7 |
| 20260502190534 | 75 | 68 | 6.1 | 12.2 | 0.00 | 0.71 | 0.00 | 47 | 1017.8 |
| 20260502190432 | 75 | 27 | 5.2 | 13.0 | 0.00 | 0.71 | 0.00 | 47 | 1017.8 |
| 20260502190332 | 75 | 23 | 4.3 | 13.0 | 0.00 | 0.71 | 0.00 | 48 | 1017.8 |
| 20260502190234 | 75 | 14 | 3.5 | 13.0 | 0.00 | 0.71 | 0.00 | 49 | 1017.8 |
| 20260502190134 | 75 | 334 | 5.2 | 13.0 | 0.00 | 0.72 | 0.00 | 49 | 1017.8 |
| 20260502190034 | 75 | 337 | 7.0 | 13.0 | 0.00 | 0.73 | 0.00 | 49 | 1017.8 |
| 20260502185932 | 75 | 8 | 7.0 | 13.0 | 0.00 | 0.73 | 0.00 | 47 | 1017.7 |
| 20260502185831 | 75 | 353 | 7.0 | 13.0 | 0.00 | 0.74 | 0.00 | 48 | 1017.7 |
| 20260502185732 | 75 | 343 | 8.7 | 13.0 | 0.00 | 0.74 | 0.00 | 47 | 1017.8 |
| 20260502185631 | 76 | 0 | 8.7 | 13.0 | 0.00 | 0.74 | 0.00 | 48 | 1017.7 |
| 20260502185530 | 76 | 56 | 7.0 | 13.0 | 0.00 | 0.75 | 0.00 | 47 | 1017.8 |
| 20260502185428 | 76 | 18 | 7.0 | 10.4 | 0.00 | 0.75 | 0.00 | 47 | 1017.8 |
| 20260502185327 | 76 | 0 | 7.0 | 10.4 | 0.00 | 0.75 | 0.00 | 47 | 1017.9 |
| 20260502185225 | 76 | 14 | 4.3 | 11.3 | 0.00 | 0.76 | 0.00 | 48 | 1017.9 |
| 20260502185123 | 76 | 28 | 2.6 | 11.3 | 0.00 | 0.76 | 0.00 | 48 | 1017.9 |
| 20260502185022 | 76 | 0 | 3.5 | 11.3 | 0.00 | 0.77 | 0.00 | 49 | 1017.9 |
| 20260502184921 | 75 | 42 | 4.3 | 11.3 | 0.00 | 0.77 | 0.00 | 48 | 1017.9 |
| 20260502184819 | 75 | 16 | 4.3 | 11.3 | 0.00 | 0.78 | 0.00 | 48 | 1018.0 |
| 20260502184718 | 75 | 13 | 4.3 | 13.9 | 0.00 | 0.79 | 0.00 | 47 | 1018.0 |
| 20260502184617 | 75 | 0 | 5.2 | 13.9 | 0.00 | 0.80 | 0.00 | 47 | 1018.0 |
| 20260502184516 | 76 | 1 | 7.0 | 13.9 | 0.00 | 0.81 | 0.00 | 47 | 1018.0 |
| 20260502184413 | 76 | 39 | 5.2 | 13.9 | 0.00 | 0.81 | 0.00 | 50 | 1018.0 |
| 20260502184310 | 75 | 24 | 3.5 | 13.9 | 0.00 | 0.82 | 0.00 | 49 | 1018.0 |
| 20260502184212 | 75 | 0 | 2.6 | 13.9 | 0.00 | 0.82 | 0.00 | 49 | 1017.9 |
| 20260502184110 | 74 | 354 | 4.3 | 13.9 | 0.00 | 0.83 | 0.00 | 49 | 1018.0 |
| 20260502184006 | 74 | 31 | 5.2 | 13.9 | 0.00 | 0.83 | 0.00 | 48 | 1018.0 |
| 20260502183906 | 74 | 23 | 7.8 | 13.9 | 0.00 | 0.83 | 0.00 | 47 | 1018.0 |
| 20260502183804 | 75 | 49 | 9.6 | 13.9 | 0.00 | 0.84 | 0.00 | 49 | 1018.0 |
| 20260502183703 | 75 | 25 | 7.8 | 12.2 | 0.00 | 0.84 | 0.00 | 50 | 1018.1 |
| 20260502183602 | 75 | 48 | 6.1 | 12.2 | 0.00 | 0.84 | 0.00 | 49 | 1018.1 |
| 20260502183503 | 75 | 48 | 5.2 | 10.4 | 0.00 | 0.85 | 0.00 | 49 | 1018.0 |
| 20260502183354 | 75 | 21 | 5.2 | 13.0 | 0.00 | 0.85 | 0.00 | 49 | 1018.0 |
| 20260502183251 | 75 | 327 | 4.3 | 13.0 | 0.00 | 0.85 | 0.00 | 49 | 1018.0 |
| 20260502183149 | 74 | 14 | 5.2 | 13.0 | 0.00 | 0.86 | 0.00 | 49 | 1018.1 |
| 20260502183048 | 74 | 0 | 6.1 | 13.0 | 0.00 | 0.86 | 0.00 | 48 | 1018.1 |
| 20260502182946 | 74 | 7 | 6.1 | 13.0 | 0.00 | 0.87 | 0.00 | 49 | 1018.1 |
| 20260502182845 | 74 | 0 | 6.1 | 13.0 | 0.00 | 0.88 | 0.00 | 48 | 1018.1 |
| 20260502182745 | 75 | 13 | 6.1 | 13.0 | 0.00 | 0.89 | 0.00 | 48 | 1018.1 |
| 20260502182643 | 75 | 7 | 7.0 | 13.0 | 0.00 | 0.90 | 0.00 | 47 | 1018.1 |
| 20260502182540 | 75 | 37 | 7.8 | 13.0 | 0.00 | 0.91 | 0.00 | 47 | 1018.2 |
| 20260502182437 | 75 | 31 | 5.2 | 13.0 | 0.00 | 0.93 | 0.00 | 49 | 1018.2 |
| 20260502182334 | 74 | 23 | 4.3 | 11.3 | 0.00 | 0.95 | 0.00 | 49 | 1018.2 |
| 20260502182233 | 74 | 30 | 4.3 | 11.3 | 0.00 | 0.96 | 0.00 | 48 | 1018.2 |
| 20260502182132 | 74 | 30 | 6.1 | 11.3 | 0.00 | 0.98 | 0.00 | 47 | 1018.3 |
| 20260502182033 | 75 | 347 | 7.0 | 11.3 | 0.00 | 0.99 | 0.00 | 47 | 1018.2 |
| 20260502181932 | 75 | 348 | 5.2 | 11.3 | 0.00 | 1.00 | 0.00 | 47 | 1018.2 |
| 20260502181832 | 75 | 357 | 4.3 | 11.3 | 0.00 | 1.01 | 0.00 | 48 | 1018.3 |
| 20260502181732 | 74 | 42 | 5.2 | 11.3 | 0.00 | 1.01 | 0.00 | 49 | 1018.3 |
| 20260502181632 | 74 | 23 | 5.2 | 12.2 | 0.00 | 1.02 | 0.00 | 48 | 1018.4 |
| 20260502181532 | 74 | 343 | 6.1 | 13.0 | 0.00 | 1.03 | 0.00 | 49 | 1018.3 |
| 20260502181431 | 74 | 344 | 7.0 | 13.9 | 0.00 | 1.03 | 0.00 | 49 | 1018.3 |
| 20260502181330 | 74 | 1 | 6.1 | 13.9 | 0.00 | 1.04 | 0.00 | 48 | 1018.3 |
| 20260502181233 | 74 | 41 | 5.2 | 13.9 | 0.00 | 1.04 | 0.00 | 48 | 1018.4 |
| 20260502181132 | 74 | 17 | 3.5 | 13.9 | 0.00 | 1.04 | 0.00 | 49 | 1018.4 |
| 20260502181031 | 74 | 336 | 4.3 | 13.9 | 0.00 | 1.05 | 0.00 | 49 | 1018.3 |
| 20260502180932 | 73 | 30 | 6.1 | 13.9 | 0.00 | 1.06 | 0.00 | 49 | 1018.3 |
| 20260502180831 | 73 | 51 | 7.8 | 13.9 | 0.00 | 1.06 | 0.00 | 49 | 1018.4 |
| 20260502180731 | 73 | 45 | 9.6 | 13.9 | 0.00 | 1.07 | 0.00 | 48 | 1018.4 |
| 20260502180632 | 73 | 45 | 10.4 | 13.9 | 0.00 | 1.08 | 0.00 | 48 | 1018.4 |
| 20260502180531 | 73 | 0 | 9.6 | 20.0 | 0.00 | 1.10 | 0.00 | 47 | 1018.4 |
| 20260502180431 | 73 | 51 | 9.6 | 20.0 | 0.00 | 1.10 | 0.00 | 46 | 1018.5 |
| 20260502180331 | 73 | 41 | 10.4 | 20.0 | 0.00 | 1.10 | 0.00 | 46 | 1018.5 |
| 20260502180232 | 74 | 42 | 11.3 | 20.0 | 0.00 | 1.11 | 0.00 | 47 | 1018.6 |
| 20260502180131 | 74 | 41 | 9.6 | 20.0 | 0.00 | 1.12 | 0.00 | 47 | 1018.6 |
| 20260502170504 | 72 | 41 | 9.6 | 15.6 | 0.00 | 1.25 | 0.00 | 54 | 1018.8 |
| 20260502170402 | 72 | 55 | 9.6 | 15.6 | 0.00 | 1.25 | 0.00 | 53 | 1018.8 |
| 20260502170302 | 71 | 31 | 9.6 | 15.6 | 0.00 | 1.25 | 0.00 | 53 | 1018.8 |
| 20260502170203 | 71 | 38 | 9.6 | 15.6 | 0.00 | 1.25 | 0.00 | 54 | 1018.8 |
| 20260502170104 | 72 | 350 | 7.8 | 15.6 | 0.00 | 1.25 | 0.00 | 54 | 1018.7 |
| 20260502164302 | 71 | 20 | 7.0 | 13.0 | 0.00 | 1.25 | 0.00 | 59 | 1018.7 |
| 20260502164202 | 71 | 0 | 6.1 | 13.0 | 0.00 | 1.25 | 0.00 | 60 | 1018.8 |
| 20260502164103 | 71 | 47 | 5.2 | 13.0 | 0.00 | 1.25 | 0.00 | 59 | 1018.8 |
| 20260502164002 | 71 | 0 | 6.1 | 13.9 | 0.00 | 1.25 | 0.00 | 58 | 1018.8 |
| 20260502163902 | 71 | 0 | 5.2 | 13.9 | 0.00 | 1.25 | 0.00 | 59 | 1018.7 |
| 20260502163804 | 71 | 338 | 6.1 | 13.9 | 0.00 | 1.25 | 0.00 | 60 | 1018.9 |
| 20260502163703 | 71 | 6 | 7.8 | 13.9 | 0.00 | 1.25 | 0.00 | 60 | 1018.8 |
| 20260502163601 | 71 | 24 | 7.0 | 13.9 | 0.00 | 1.25 | 0.00 | 60 | 1018.9 |
| 20260502163502 | 71 | 16 | 6.1 | 13.9 | 0.00 | 1.25 | 0.00 | 60 | 1018.9 |
| 20260502163402 | 71 | 344 | 7.8 | 13.9 | 0.00 | 1.25 | 0.00 | 60 | 1018.8 |
| 20260502163303 | 71 | 47 | 7.0 | 16.5 | 0.00 | 1.25 | 0.00 | 62 | 1018.8 |
| 20260502163202 | 71 | 11 | 7.8 | 16.5 | 0.00 | 1.25 | 0.00 | 62 | 1018.8 |
| 20260502163104 | 70 | 32 | 7.8 | 16.5 | 0.00 | 1.25 | 0.00 | 62 | 1018.8 |
| 20260502163002 | 70 | 0 | 5.2 | 16.5 | 0.00 | 1.25 | 0.00 | 62 | 1018.8 |
| 20260502162902 | 70 | 42 | 5.2 | 16.5 | 0.00 | 1.25 | 0.00 | 63 | 1018.8 |
| 20260502162803 | 70 | 1 | 6.1 | 16.5 | 0.00 | 1.25 | 0.00 | 62 | 1018.9 |
| 20260502162702 | 70 | 0 | 7.0 | 16.5 | 0.00 | 1.25 | 0.00 | 63 | 1018.9 |
| 20260502162602 | 70 | 0 | 6.1 | 16.5 | 0.00 | 1.25 | 0.00 | 62 | 1018.8 |
| 20260502162503 | 70 | 21 | 8.7 | 16.5 | 0.00 | 1.25 | 0.00 | 62 | 1018.8 |
| 20260502162403 | 70 | 6 | 10.4 | 16.5 | 0.00 | 1.25 | 0.00 | 61 | 1018.8 |
| 20260502162304 | 70 | 39 | 7.8 | 13.0 | 0.00 | 1.25 | 0.00 | 62 | 1018.8 |
| 20260502162202 | 70 | 0 | 7.8 | 13.9 | 0.00 | 1.25 | 0.00 | 62 | 1018.9 |
| 20260502162104 | 70 | 0 | 7.8 | 13.9 | 0.00 | 1.25 | 0.00 | 63 | 1018.9 |
| 20260502162004 | 70 | 16 | 7.8 | 13.9 | 0.00 | 1.25 | 0.00 | 63 | 1018.8 |
| 20260502161902 | 69 | 336 | 6.1 | 13.9 | 0.00 | 1.25 | 0.00 | 62 | 1018.8 |
| 20260502161803 | 69 | 0 | 5.2 | 13.9 | 0.00 | 1.25 | 0.00 | 62 | 1018.8 |
| 20260502161703 | 69 | 314 | 7.0 | 13.9 | 0.00 | 1.25 | 0.00 | 62 | 1018.9 |
| 20260502161602 | 69 | 44 | 7.8 | 13.9 | 0.00 | 1.25 | 0.00 | 62 | 1018.9 |
| 20260502161502 | 69 | 0 | 8.7 | 13.9 | 0.00 | 1.25 | 0.00 | 62 | 1018.8 |
| 20260502161403 | 69 | 3 | 9.6 | 13.9 | 0.00 | 1.25 | 0.00 | 62 | 1018.8 |
| 20260502161302 | 69 | 13 | 9.6 | 13.9 | 0.00 | 1.25 | 0.00 | 62 | 1018.8 |
| 20260502161202 | 69 | 6 | 8.7 | 13.9 | 0.00 | 1.25 | 0.00 | 64 | 1018.8 |
| 20260502161102 | 69 | 27 | 8.7 | 13.9 | 0.00 | 1.25 | 0.00 | 64 | 1018.8 |
| 20260502161004 | 69 | 39 | 7.8 | 13.9 | 0.00 | 1.25 | 0.00 | 64 | 1018.7 |
| 20260502160902 | 69 | 25 | 5.2 | 13.0 | 0.00 | 1.25 | 0.00 | 64 | 1018.7 |
| 20260502160802 | 69 | 0 | 6.1 | 13.0 | 0.00 | 1.25 | 0.00 | 64 | 1018.6 |
| 20260502160704 | 69 | 355 | 7.0 | 13.0 | 0.00 | 1.25 | 0.00 | 65 | 1018.8 |
| 20260502160604 | 69 | 358 | 5.2 | 13.0 | 0.00 | 1.25 | 0.00 | 66 | 1018.7 |
| 20260502160504 | 69 | 17 | 7.0 | 13.0 | 0.00 | 1.25 | 0.00 | 66 | 1018.7 |
| 20260502160403 | 69 | 39 | 7.0 | 13.0 | 0.00 | 1.25 | 0.00 | 67 | 1018.6 |
| 20260502160302 | 69 | 52 | 5.2 | 13.0 | 0.00 | 1.25 | 0.00 | 67 | 1018.7 |
| 20260502160203 | 68 | 0 | 6.1 | 13.0 | 0.00 | 1.25 | 0.00 | 66 | 1018.6 |
| 20260502152341 | 66 | 13 | 8.7 | 14.8 | 0.00 | 1.25 | 0.00 | 72 | 1018.7 |
| 20260502152238 | 66 | 7 | 8.7 | 14.8 | 0.00 | 1.25 | 0.00 | 72 | 1018.7 |
| 20260502152137 | 66 | 32 | 7.8 | 14.8 | 0.00 | 1.25 | 0.00 | 72 | 1018.7 |
| 20260502152030 | 66 | 274 | 5.2 | 14.8 | 0.00 | 1.25 | 0.00 | 73 | 1018.7 |
| 20260502151931 | 66 | 258 | 5.2 | 14.8 | 0.00 | 1.25 | 0.00 | 72 | 1018.7 |
| 20260502151833 | 66 | 252 | 7.8 | 14.8 | 0.00 | 1.25 | 0.00 | 73 | 1018.6 |
| 20260502151732 | 65 | 0 | 8.7 | 14.8 | 0.00 | 1.25 | 0.00 | 72 | 1018.6 |
| 20260502151631 | 65 | 8 | 9.6 | 14.8 | 0.00 | 1.25 | 0.00 | 71 | 1018.6 |
| 20260502151532 | 65 | 23 | 8.7 | 14.8 | 0.00 | 1.25 | 0.00 | 71 | 1018.6 |
| 20260502151431 | 65 | 269 | 8.7 | 13.9 | 0.00 | 1.25 | 0.00 | 72 | 1018.6 |
| 20260502151332 | 65 | 45 | 9.6 | 13.9 | 0.00 | 1.25 | 0.00 | 73 | 1018.6 |
| 20260502151231 | 65 | 27 | 8.7 | 13.9 | 0.00 | 1.25 | 0.00 | 73 | 1018.6 |
| 20260502151132 | 65 | 42 | 7.8 | 13.9 | 0.00 | 1.25 | 0.00 | 73 | 1018.6 |
| 20260502151031 | 65 | 279 | 7.0 | 13.9 | 0.00 | 1.25 | 0.00 | 73 | 1018.5 |
| 20260502150931 | 65 | 283 | 7.0 | 13.9 | 0.00 | 1.25 | 0.00 | 73 | 1018.5 |
| 20260502150828 | 65 | 269 | 7.8 | 13.9 | 0.00 | 1.25 | 0.00 | 73 | 1018.6 |
| 20260502150728 | 65 | 274 | 7.8 | 13.9 | 0.00 | 1.25 | 0.00 | 73 | 1018.6 |
| 20260502150627 | 65 | 278 | 6.1 | 13.9 | 0.00 | 1.25 | 0.00 | 74 | 1018.7 |
| 20260502150528 | 65 | 11 | 7.0 | 13.9 | 0.00 | 1.25 | 0.00 | 74 | 1018.6 |
| 20260502150428 | 65 | 39 | 7.8 | 13.9 | 0.00 | 1.25 | 0.00 | 74 | 1018.6 |
| 20260502150327 | 65 | 24 | 7.0 | 13.9 | 0.00 | 1.25 | 0.00 | 74 | 1018.6 |
| 20260502150228 | 65 | 23 | 6.1 | 13.9 | 0.00 | 1.25 | 0.00 | 75 | 1018.7 |
| 20260502150127 | 65 | 34 | 6.1 | 13.0 | 0.00 | 1.25 | 0.00 | 75 | 1018.6 |
| 20260502140127 | 60 | 10 | 5.2 | 10.4 | 0.00 | 1.38 | 0.00 | 84 | 1018.2 |
| 20260502130725 | 56 | 0 | 5.2 | 9.6 | 0.00 | 1.43 | 0.00 | 94 | 1017.4 |
| 20260502130625 | 56 | 0 | 5.2 | 9.6 | 0.00 | 1.43 | 0.00 | 94 | 1017.5 |
| 20260502130525 | 56 | 299 | 5.2 | 8.7 | 0.00 | 1.43 | 0.00 | 94 | 1017.5 |
| 20260502130426 | 56 | 0 | 5.2 | 8.7 | 0.00 | 1.43 | 0.00 | 94 | 1017.4 |
| 20260502130326 | 55 | 0 | 5.2 | 8.7 | 0.00 | 1.43 | 0.00 | 94 | 1017.4 |
| 20260502130224 | 55 | 286 | 4.3 | 8.7 | 0.00 | 1.43 | 0.00 | 94 | 1017.4 |
| 20260502130126 | 55 | 314 | 3.5 | 8.7 | 0.00 | 1.43 | 0.00 | 94 | 1017.4 |
| 20260502123804 | 54 | 323 | 4.3 | 6.1 | 0.00 | 1.43 | 0.00 | 95 | 1017.1 |
| 20260502123701 | 54 | 321 | 4.3 | 6.1 | 0.00 | 1.43 | 0.00 | 95 | 1017.1 |
| 20260502123602 | 54 | 323 | 3.5 | 6.1 | 0.00 | 1.43 | 0.00 | 95 | 1017.1 |
| 20260502123503 | 54 | 320 | 3.5 | 5.2 | 0.00 | 1.43 | 0.00 | 95 | 1017.1 |
| 20260502123402 | 54 | 310 | 2.6 | 5.2 | 0.00 | 1.43 | 0.00 | 95 | 1017.0 |
| 20260502123303 | 53 | 327 | 2.6 | 3.5 | 0.00 | 1.43 | 0.00 | 95 | 1016.9 |
| 20260502123203 | 53 | 357 | 2.6 | 3.5 | 0.00 | 1.43 | 0.00 | 95 | 1017.0 |
| 20260502123103 | 53 | 357 | 2.6 | 3.5 | 0.00 | 1.43 | 0.00 | 95 | 1016.9 |
| 20260502123003 | 53 | 357 | 2.6 | 5.2 | 0.00 | 1.43 | 0.00 | 95 | 1016.9 |
| 20260502122904 | 53 | 357 | 2.6 | 5.2 | 0.00 | 1.43 | 0.00 | 95 | 1016.9 |
| 20260502122803 | 53 | 314 | 1.7 | 5.2 | 0.00 | 1.43 | 0.00 | 95 | 1017.0 |
| 20260502122703 | 53 | 330 | 1.7 | 5.2 | 0.00 | 1.43 | 0.00 | 95 | 1016.8 |
| 20260502122603 | 53 | 326 | 1.7 | 5.2 | 0.00 | 1.43 | 0.00 | 95 | 1016.9 |
| 20260502122504 | 53 | 324 | 1.7 | 5.2 | 0.00 | 1.43 | 0.00 | 95 | 1016.8 |
| 20260502122403 | 53 | 326 | 2.6 | 5.2 | 0.00 | 1.43 | 0.00 | 95 | 1016.8 |
| 20260502122301 | 53 | 326 | 2.6 | 5.2 | 0.00 | 1.43 | 0.00 | 95 | 1016.8 |
| 20260502122202 | 53 | 331 | 2.6 | 5.2 | 0.00 | 1.43 | 0.00 | 95 | 1016.8 |
| 20260502122102 | 53 | 330 | 2.6 | 5.2 | 0.00 | 1.43 | 0.00 | 95 | 1016.8 |
| 20260502122003 | 53 | 351 | 1.7 | 4.3 | 0.00 | 1.43 | 0.00 | 95 | 1016.8 |
| 20260502121902 | 53 | 351 | 1.7 | 4.3 | 0.00 | 1.43 | 0.00 | 95 | 1016.7 |
| 20260502121804 | 53 | 353 | 2.6 | 4.3 | 0.00 | 1.43 | 0.00 | 95 | 1016.8 |
| 20260502121703 | 53 | 354 | 1.7 | 4.3 | 0.00 | 1.43 | 0.00 | 95 | 1016.8 |
| 20260502121603 | 53 | 312 | 0.9 | 3.5 | 0.00 | 1.43 | 0.00 | 95 | 1016.8 |
| 20260502121502 | 53 | 310 | 1.7 | 3.5 | 0.00 | 1.43 | 0.00 | 95 | 1016.8 |
| 20260502121403 | 53 | 310 | 2.6 | 3.5 | 0.00 | 1.43 | 0.00 | 95 | 1016.7 |
| 20260502121302 | 53 | 323 | 2.6 | 3.5 | 0.00 | 1.43 | 0.00 | 95 | 1016.8 |
| 20260502121201 | 53 | 0 | 1.7 | 3.5 | 0.00 | 1.43 | 0.00 | 95 | 1016.8 |
| 20260502121103 | 53 | 16 | 1.7 | 3.5 | 0.00 | 1.43 | 0.00 | 95 | 1016.7 |
| 20260502121002 | 53 | 20 | 1.7 | 4.3 | 0.00 | 1.43 | 0.00 | 95 | 1016.7 |
| 20260502120903 | 52 | 21 | 1.7 | 4.3 | 0.00 | 1.43 | 0.00 | 95 | 1016.7 |
| 20260502120803 | 52 | 353 | 1.7 | 4.3 | 0.00 | 1.43 | 0.00 | 95 | 1016.7 |
| 20260502120702 | 52 | 354 | 1.7 | 4.3 | 0.00 | 1.43 | 0.00 | 95 | 1016.7 |
| 20260502120602 | 52 | 354 | 1.7 | 4.3 | 0.00 | 1.43 | 0.00 | 95 | 1016.8 |
| 20260502120504 | 52 | 353 | 1.7 | 4.3 | 0.00 | 1.43 | 0.00 | 95 | 1016.7 |
| 20260502120403 | 52 | 353 | 0.9 | 4.3 | 0.00 | 1.44 | 0.00 | 95 | 1016.7 |
| 20260502120302 | 52 | 351 | 1.7 | 4.3 | 0.00 | 1.44 | 0.00 | 95 | 1016.7 |
| 20260502120202 | 52 | 351 | 2.6 | 4.3 | 0.00 | 1.44 | 0.00 | 95 | 1016.7 |
| 20260502115902 | 52 | 345 | 0.9 | 3.5 | 0.00 | 1.45 | 0.00 | 95 | 1016.6 |
| 20260502115803 | 52 | 345 | 1.7 | 3.5 | 0.00 | 1.46 | 0.00 | 95 | 1016.5 |
| 20260502115702 | 52 | 345 | 1.7 | 4.3 | 0.00 | 1.46 | 0.00 | 95 | 1016.6 |
| 20260502115602 | 52 | 345 | 1.7 | 4.3 | 0.00 | 1.46 | 0.00 | 95 | 1016.6 |
| 20260502115503 | 52 | 344 | 1.7 | 5.2 | 0.00 | 1.46 | 0.00 | 95 | 1016.6 |
| 20260502115403 | 52 | 345 | 1.7 | 5.2 | 0.00 | 1.46 | 0.00 | 95 | 1016.5 |
| 20260502115306 | 52 | 353 | 1.7 | 5.2 | 0.00 | 1.46 | 0.00 | 95 | 1016.6 |
| 20260502115202 | 52 | 353 | 1.7 | 5.2 | 0.00 | 1.46 | 0.00 | 95 | 1016.5 |
| 20260502115103 | 52 | 351 | 1.7 | 5.2 | 0.00 | 1.46 | 0.00 | 95 | 1016.5 |
| 20260502115004 | 52 | 341 | 1.7 | 5.2 | 0.00 | 1.46 | 0.00 | 95 | 1016.5 |
| 20260502114901 | 52 | 345 | 2.6 | 5.2 | 0.00 | 1.46 | 0.00 | 95 | 1016.5 |
| 20260502114802 | 52 | 354 | 3.5 | 5.2 | 0.00 | 1.46 | 0.00 | 95 | 1016.5 |
| 20260502114704 | 52 | 351 | 2.6 | 5.2 | 0.00 | 1.46 | 0.00 | 95 | 1016.4 |
| 20260502114602 | 52 | 324 | 2.6 | 5.2 | 0.00 | 1.46 | 0.00 | 95 | 1016.5 |
| 20260502114503 | 52 | 0 | 2.6 | 5.2 | 0.00 | 1.46 | 0.00 | 95 | 1016.4 |
| 20260502114404 | 52 | 7 | 2.6 | 5.2 | 0.00 | 1.46 | 0.00 | 95 | 1016.4 |
| 20260502114302 | 52 | 345 | 2.6 | 5.2 | 0.00 | 1.46 | 0.00 | 95 | 1016.4 |
| 20260502114203 | 52 | 344 | 2.6 | 5.2 | 0.00 | 1.46 | 0.00 | 94 | 1016.5 |
| 20260502114103 | 52 | 347 | 3.5 | 5.2 | 0.00 | 1.46 | 0.00 | 94 | 1016.5 |
| 20260502114003 | 52 | 338 | 3.5 | 5.2 | 0.00 | 1.46 | 0.00 | 94 | 1016.5 |
| 20260502113901 | 52 | 343 | 3.5 | 5.2 | 0.00 | 1.46 | 0.00 | 95 | 1016.5 |
| 20260502113802 | 52 | 350 | 2.6 | 5.2 | 0.00 | 1.46 | 0.00 | 94 | 1016.5 |
| 20260502113703 | 52 | 351 | 2.6 | 5.2 | 0.00 | 1.46 | 0.00 | 94 | 1016.5 |
| 20260502113603 | 52 | 357 | 3.5 | 5.2 | 0.00 | 1.46 | 0.00 | 94 | 1016.5 |
| 20260502113504 | 52 | 327 | 3.5 | 5.2 | 0.00 | 1.46 | 0.00 | 94 | 1016.4 |
| 20260502113402 | 52 | 329 | 2.6 | 5.2 | 0.00 | 1.46 | 0.00 | 94 | 1016.4 |
| 20260502113302 | 52 | 348 | 2.6 | 6.1 | 0.00 | 1.46 | 0.00 | 94 | 1016.4 |
| 20260502113202 | 52 | 348 | 3.5 | 6.1 | 0.00 | 1.46 | 0.00 | 94 | 1016.3 |
| 20260502113101 | 52 | 347 | 3.5 | 6.1 | 0.00 | 1.46 | 0.00 | 94 | 1016.3 |
| 20260502113004 | 52 | 334 | 2.6 | 6.1 | 0.00 | 1.46 | 0.00 | 94 | 1016.2 |
| 20260502112902 | 52 | 350 | 2.6 | 6.1 | 0.00 | 1.46 | 0.00 | 94 | 1016.3 |
| 20260502112802 | 52 | 344 | 2.6 | 6.1 | 0.00 | 1.46 | 0.00 | 94 | 1016.2 |
| 20260502112703 | 52 | 345 | 2.6 | 6.1 | 0.00 | 1.46 | 0.00 | 94 | 1016.2 |
| 20260502112602 | 52 | 351 | 2.6 | 6.1 | 0.00 | 1.46 | 0.00 | 94 | 1016.2 |
| 20260502112502 | 52 | 324 | 3.5 | 6.1 | 0.00 | 1.46 | 0.00 | 94 | 1016.2 |
| 20260502112403 | 52 | 316 | 3.5 | 6.1 | 0.00 | 1.47 | 0.00 | 94 | 1016.1 |
| 20260502112305 | 52 | 337 | 2.6 | 4.3 | 0.00 | 1.47 | 0.00 | 94 | 1016.2 |
| 20260502112202 | 52 | 347 | 2.6 | 5.2 | 0.00 | 1.48 | 0.00 | 94 | 1016.2 |
| 20260502112103 | 52 | 357 | 2.6 | 5.2 | 0.00 | 1.48 | 0.00 | 94 | 1016.1 |
| 20260502112003 | 52 | 357 | 1.7 | 5.2 | 0.00 | 1.48 | 0.00 | 94 | 1016.2 |
| 20260502111903 | 52 | 357 | 1.7 | 5.2 | 0.00 | 1.48 | 0.00 | 94 | 1016.2 |
| 20260502111802 | 52 | 357 | 2.6 | 5.2 | 0.00 | 1.48 | 0.00 | 94 | 1016.2 |
| 20260502111703 | 52 | 0 | 2.6 | 5.2 | 0.00 | 1.48 | 0.00 | 94 | 1016.2 |
| 20260502111603 | 52 | 330 | 3.5 | 5.2 | 0.00 | 1.48 | 0.00 | 94 | 1016.1 |
| 20260502111503 | 52 | 326 | 3.5 | 6.1 | 0.00 | 1.48 | 0.00 | 94 | 1016.1 |
| 20260502111402 | 52 | 337 | 3.5 | 6.1 | 0.00 | 1.48 | 0.00 | 94 | 1016.1 |
| 20260502111304 | 52 | 330 | 3.5 | 6.1 | 0.00 | 1.48 | 0.00 | 94 | 1016.2 |
| 20260502111203 | 52 | 334 | 3.5 | 6.1 | 0.00 | 1.48 | 0.00 | 94 | 1016.2 |
| 20260502111103 | 52 | 355 | 2.6 | 6.1 | 0.00 | 1.48 | 0.00 | 94 | 1016.2 |
| 20260502111004 | 52 | 350 | 2.6 | 6.1 | 0.00 | 1.48 | 0.00 | 94 | 1016.2 |
| 20260502110902 | 52 | 341 | 2.6 | 6.1 | 0.00 | 1.48 | 0.00 | 94 | 1016.1 |
| 20260502110802 | 52 | 357 | 2.6 | 6.1 | 0.00 | 1.48 | 0.00 | 94 | 1016.2 |
| 20260502110703 | 52 | 341 | 4.3 | 6.1 | 0.00 | 1.48 | 0.00 | 94 | 1016.2 |
| 20260502110603 | 52 | 341 | 4.3 | 6.1 | 0.00 | 1.48 | 0.00 | 94 | 1016.1 |
| 20260502110502 | 52 | 338 | 4.3 | 6.1 | 0.00 | 1.48 | 0.00 | 94 | 1016.2 |
| 20260502110403 | 52 | 357 | 3.5 | 6.1 | 0.00 | 1.48 | 0.00 | 94 | 1016.1 |
| 20260502110303 | 52 | 344 | 3.5 | 5.2 | 0.00 | 1.48 | 0.00 | 94 | 1016.1 |
| 20260502110202 | 52 | 334 | 2.6 | 5.2 | 0.00 | 1.48 | 0.00 | 94 | 1016.1 |
| 20260502110103 | 52 | 333 | 3.5 | 5.2 | 0.00 | 1.48 | 0.00 | 94 | 1016.1 |
| 20260502110004 | 52 | 338 | 3.5 | 5.2 | 0.00 | 1.49 | 0.00 | 94 | 1016.1 |
| 20260502105904 | 52 | 338 | 3.5 | 5.2 | 0.00 | 1.49 | 0.00 | 94 | 1016.1 |
| 20260502105803 | 52 | 338 | 3.5 | 5.2 | 0.00 | 1.49 | 0.00 | 94 | 1016.0 |
| 20260502105702 | 52 | 326 | 3.5 | 5.2 | 0.00 | 1.50 | 0.00 | 94 | 1016.1 |
| 20260502105604 | 52 | 331 | 2.6 | 5.2 | 0.00 | 1.50 | 0.00 | 94 | 1015.9 |
| 20260502105503 | 53 | 331 | 2.6 | 4.3 | 0.00 | 1.50 | 0.00 | 94 | 1015.9 |
| 20260502105403 | 53 | 334 | 1.7 | 4.3 | 0.00 | 1.51 | 0.00 | 94 | 1015.9 |
| 20260502105306 | 53 | 353 | 1.7 | 4.3 | 0.00 | 1.51 | 0.00 | 94 | 1015.9 |
| 20260502105203 | 53 | 348 | 1.7 | 5.2 | 0.00 | 1.51 | 0.00 | 94 | 1015.9 |
| 20260502105101 | 53 | 348 | 1.7 | 5.2 | 0.00 | 1.51 | 0.00 | 94 | 1015.9 |
| 20260502105002 | 53 | 350 | 1.7 | 5.2 | 0.00 | 1.51 | 0.00 | 94 | 1015.9 |
| 20260502104903 | 53 | 357 | 2.6 | 5.2 | 0.00 | 1.51 | 0.00 | 94 | 1015.8 |
| 20260502104802 | 53 | 0 | 3.5 | 5.2 | 0.00 | 1.51 | 0.00 | 94 | 1015.8 |
| 20260502104703 | 53 | 0 | 2.6 | 6.1 | 0.00 | 1.51 | 0.00 | 94 | 1015.8 |
| 20260502104603 | 53 | 340 | 2.6 | 6.1 | 0.00 | 1.51 | 0.00 | 94 | 1015.7 |
| 20260502104502 | 53 | 4 | 2.6 | 6.1 | 0.00 | 1.51 | 0.00 | 94 | 1015.8 |
| 20260502104402 | 53 | 333 | 3.5 | 6.1 | 0.00 | 1.51 | 0.00 | 94 | 1015.7 |
| 20260502104304 | 53 | 0 | 3.5 | 6.1 | 0.00 | 1.51 | 0.00 | 94 | 1015.8 |
| 20260502104203 | 53 | 0 | 3.5 | 6.1 | 0.00 | 1.51 | 0.00 | 94 | 1015.7 |
| 20260502104104 | 53 | 28 | 3.5 | 6.1 | 0.00 | 1.51 | 0.00 | 94 | 1015.8 |
| 20260502104003 | 53 | 354 | 2.6 | 6.1 | 0.00 | 1.51 | 0.00 | 94 | 1015.8 |
| 20260502103854 | 53 | 0 | 3.5 | 6.1 | 0.00 | 1.52 | 0.00 | 94 | 1015.7 |
| 20260502103751 | 53 | 0 | 3.5 | 6.1 | 0.00 | 1.52 | 0.00 | 94 | 1015.7 |
| 20260502103650 | 53 | 357 | 2.6 | 6.1 | 0.00 | 1.54 | 0.00 | 94 | 1015.6 |
| 20260502103548 | 53 | 334 | 3.5 | 6.1 | 0.00 | 1.54 | 0.00 | 94 | 1015.7 |
| 20260502103445 | 53 | 0 | 3.5 | 6.1 | 0.00 | 1.54 | 0.00 | 94 | 1015.7 |
| 20260502103344 | 53 | 353 | 2.6 | 6.1 | 0.00 | 1.54 | 0.00 | 94 | 1015.7 |
| 20260502103245 | 53 | 357 | 2.6 | 6.1 | 0.00 | 1.56 | 0.00 | 94 | 1015.7 |
| 20260502103140 | 53 | 357 | 2.6 | 6.1 | 0.00 | 1.56 | 0.00 | 94 | 1015.7 |
| 20260502103041 | 53 | 345 | 3.5 | 6.1 | 0.00 | 1.58 | 0.00 | 94 | 1015.7 |
| 20260502102940 | 53 | 355 | 3.5 | 6.1 | 0.00 | 1.59 | 0.00 | 94 | 1015.7 |
| 20260502102838 | 53 | 357 | 3.5 | 6.1 | 0.00 | 1.60 | 0.00 | 94 | 1015.7 |
| 20260502102737 | 53 | 357 | 3.5 | 6.1 | 0.00 | 1.60 | 0.00 | 94 | 1015.7 |
| 20260502102636 | 53 | 353 | 3.5 | 5.2 | 0.00 | 1.61 | 0.00 | 94 | 1015.7 |
| 20260502102533 | 53 | 350 | 3.5 | 5.2 | 0.00 | 1.61 | 0.00 | 94 | 1015.7 |
| 20260502102431 | 53 | 347 | 3.5 | 5.2 | 0.00 | 1.61 | 0.00 | 94 | 1015.7 |
| 20260502102331 | 53 | 350 | 2.6 | 5.2 | 0.00 | 1.62 | 0.00 | 93 | 1015.7 |
| 20260502102231 | 53 | 348 | 2.6 | 6.1 | 0.00 | 1.62 | 0.00 | 93 | 1015.7 |
| 20260502102132 | 53 | 327 | 2.6 | 6.1 | 0.00 | 1.62 | 0.00 | 94 | 1015.7 |
| 20260502102031 | 53 | 345 | 2.6 | 6.1 | 0.00 | 1.62 | 0.00 | 93 | 1015.6 |
| 20260502101931 | 53 | 345 | 1.7 | 6.1 | 0.00 | 1.62 | 0.00 | 94 | 1015.6 |
| 20260502101832 | 53 | 338 | 2.6 | 6.1 | 0.00 | 1.62 | 0.00 | 94 | 1015.6 |
| 20260502101731 | 53 | 334 | 3.5 | 6.1 | 0.00 | 1.63 | 0.00 | 94 | 1015.6 |
| 20260502101631 | 53 | 354 | 3.5 | 6.1 | 0.00 | 1.63 | 0.00 | 94 | 1015.6 |
| 20260502101532 | 53 | 344 | 3.5 | 6.1 | 0.00 | 1.65 | 0.00 | 94 | 1015.5 |
| 20260502101431 | 53 | 343 | 3.5 | 6.1 | 0.00 | 1.65 | 0.00 | 94 | 1015.6 |
| 20260502101332 | 53 | 329 | 3.5 | 6.1 | 0.00 | 1.65 | 0.00 | 93 | 1015.5 |
| 20260502101232 | 53 | 341 | 3.5 | 5.2 | 0.00 | 1.65 | 0.00 | 93 | 1015.5 |
| 20260502101133 | 53 | 0 | 3.5 | 6.1 | 0.00 | 1.65 | 0.00 | 93 | 1015.4 |
| 20260502101032 | 53 | 348 | 2.6 | 6.1 | 0.00 | 1.65 | 0.00 | 93 | 1015.4 |
| 20260502100921 | 53 | 348 | 2.6 | 6.1 | 0.00 | 1.65 | 0.00 | 93 | 1015.4 |
| 20260502100821 | 53 | 348 | 2.6 | 6.1 | 0.00 | 1.65 | 0.00 | 93 | 1015.4 |
| 20260502100722 | 53 | 348 | 2.6 | 6.1 | 0.00 | 1.67 | 0.00 | 93 | 1015.3 |
| 20260502100620 | 53 | 348 | 2.6 | 6.1 | 0.00 | 1.67 | 0.00 | 93 | 1015.3 |
| 20260502100520 | 53 | 0 | 2.6 | 6.1 | 0.00 | 1.67 | 0.00 | 93 | 1015.3 |
| 20260502100420 | 53 | 338 | 3.5 | 7.8 | 0.00 | 1.67 | 0.00 | 93 | 1015.2 |
| 20260502100320 | 53 | 348 | 3.5 | 7.8 | 0.00 | 1.69 | 0.00 | 93 | 1015.2 |
| 20260502100220 | 53 | 0 | 4.3 | 7.8 | 0.00 | 1.69 | 0.00 | 93 | 1015.2 |
| 20260502100121 | 53 | 353 | 4.3 | 7.8 | 0.00 | 1.71 | 0.00 | 93 | 1015.2 |
| 20260502091520 | 53 | 17 | 1.7 | 6.1 | 0.00 | 2.20 | 0.00 | 92 | 1014.5 |
| 20260502091419 | 54 | 17 | 1.7 | 6.1 | 0.00 | 2.20 | 0.00 | 92 | 1014.5 |
| 20260502091319 | 54 | 4 | 1.7 | 6.1 | 0.00 | 2.20 | 0.00 | 92 | 1014.5 |
| 20260502091219 | 54 | 4 | 1.7 | 6.1 | 0.00 | 2.20 | 0.00 | 92 | 1014.4 |
| 20260502091119 | 54 | 3 | 1.7 | 6.1 | 0.00 | 2.20 | 0.00 | 92 | 1014.4 |
| 20260502091019 | 54 | 4 | 1.7 | 6.1 | 0.00 | 2.20 | 0.00 | 92 | 1014.3 |
| 20260502090919 | 54 | 3 | 2.6 | 6.1 | 0.00 | 2.20 | 0.00 | 92 | 1014.4 |
| 20260502090820 | 54 | 4 | 2.6 | 6.1 | 0.00 | 2.20 | 0.00 | 92 | 1014.4 |
| 20260502090719 | 54 | 18 | 1.7 | 6.1 | 0.00 | 2.20 | 0.00 | 92 | 1014.4 |
| 20260502090620 | 54 | 18 | 2.6 | 6.1 | 0.00 | 2.20 | 0.00 | 92 | 1014.4 |
| 20260502090521 | 54 | 17 | 2.6 | 6.1 | 0.00 | 2.20 | 0.00 | 92 | 1014.3 |
| 20260502090420 | 54 | 6 | 2.6 | 6.1 | 0.00 | 2.20 | 0.00 | 92 | 1014.3 |
| 20260502090319 | 54 | 20 | 2.6 | 6.1 | 0.00 | 2.20 | 0.00 | 92 | 1014.3 |
| 20260502090219 | 54 | 0 | 2.6 | 6.1 | 0.00 | 2.20 | 0.00 | 92 | 1014.2 |
| 20260502090120 | 54 | 0 | 3.5 | 6.1 | 0.00 | 2.20 | 0.00 | 92 | 1014.2 |
| 20260502071531 | 55 | 14 | 5.2 | 13.0 | 0.00 | 2.56 | 0.00 | 93 | 1014.2 |
| 20260502071431 | 55 | 38 | 5.2 | 13.0 | 0.00 | 2.56 | 0.00 | 94 | 1014.2 |
| 20260502071332 | 55 | 31 | 5.2 | 13.0 | 0.00 | 2.56 | 0.00 | 94 | 1014.2 |
| 20260502071230 | 55 | 45 | 4.3 | 13.0 | 0.00 | 2.56 | 0.00 | 94 | 1014.2 |
| 20260502071130 | 55 | 4 | 4.3 | 13.0 | 0.00 | 2.56 | 0.00 | 94 | 1014.2 |
| 20260502071032 | 55 | 32 | 5.2 | 13.0 | 0.00 | 2.56 | 0.00 | 94 | 1014.3 |
| 20260502070931 | 55 | 13 | 7.0 | 13.0 | 0.00 | 2.56 | 0.00 | 94 | 1014.3 |
| 20260502070831 | 55 | 28 | 5.2 | 13.0 | 0.00 | 2.56 | 0.00 | 94 | 1014.3 |
| 20260502070732 | 55 | 14 | 4.3 | 10.4 | 0.00 | 2.56 | 0.00 | 94 | 1014.3 |
| 20260502070633 | 55 | 14 | 4.3 | 10.4 | 0.00 | 2.56 | 0.00 | 94 | 1014.2 |
| 20260502070533 | 55 | 358 | 4.3 | 10.4 | 0.00 | 2.56 | 0.00 | 94 | 1014.3 |
| 20260502070432 | 55 | 358 | 4.3 | 10.4 | 0.00 | 2.56 | 0.00 | 94 | 1014.3 |
| 20260502070321 | 55 | 4 | 4.3 | 10.4 | 0.00 | 2.56 | 0.00 | 94 | 1014.2 |
| 20260502070222 | 55 | 0 | 4.3 | 10.4 | 0.00 | 2.56 | 0.00 | 94 | 1014.3 |
| 20260502070119 | 55 | 23 | 5.2 | 10.4 | 0.00 | 2.56 | 0.00 | 94 | 1014.3 |
| 20260502070017 | 55 | 66 | 6.1 | 10.4 | 0.00 | 2.56 | 0.00 | 94 | 1014.2 |
| 20260502065916 | 55 | 20 | 7.0 | 10.4 | 0.00 | 2.56 | 0.00 | 94 | 1014.2 |
| 20260502065816 | 55 | 20 | 7.0 | 10.4 | 0.00 | 2.56 | 0.00 | 94 | 1014.2 |
| 20260502065716 | 55 | 6 | 7.0 | 10.4 | 0.00 | 2.56 | 0.00 | 94 | 1014.2 |
| 20260502065618 | 55 | 42 | 6.1 | 10.4 | 0.00 | 2.56 | 0.00 | 94 | 1014.2 |
| 20260502065518 | 55 | 23 | 5.2 | 10.4 | 0.00 | 2.56 | 0.00 | 94 | 1014.2 |
| 20260502065416 | 55 | 31 | 4.3 | 10.4 | 0.00 | 2.56 | 0.00 | 94 | 1014.2 |
| 20260502065317 | 55 | 10 | 4.3 | 10.4 | 0.00 | 2.56 | 0.00 | 94 | 1014.2 |
| 20260502065215 | 55 | 39 | 4.3 | 10.4 | 0.00 | 2.56 | 0.00 | 94 | 1014.1 |
| 20260502065115 | 55 | 38 | 4.3 | 10.4 | 0.00 | 2.56 | 0.00 | 94 | 1014.1 |
| 20260502065012 | 55 | 13 | 6.1 | 10.4 | 0.00 | 2.56 | 0.00 | 94 | 1014.1 |
| 20260502064910 | 55 | 8 | 7.0 | 10.4 | 0.00 | 2.56 | 0.00 | 94 | 1014.1 |
| 20260502064811 | 55 | 21 | 6.1 | 9.6 | 0.00 | 2.56 | 0.00 | 94 | 1014.0 |
| 20260502064705 | 55 | 20 | 5.2 | 9.6 | 0.00 | 2.56 | 0.00 | 94 | 1014.0 |
| 20260502064603 | 55 | 41 | 4.3 | 11.3 | 0.00 | 2.56 | 0.00 | 94 | 1014.0 |
| 20260502064504 | 55 | 24 | 5.2 | 11.3 | 0.00 | 2.56 | 0.00 | 94 | 1013.9 |
| 20260502064402 | 55 | 0 | 4.3 | 12.2 | 0.00 | 2.56 | 0.00 | 94 | 1014.0 |
| 20260502064303 | 55 | 357 | 5.2 | 12.2 | 0.00 | 2.56 | 0.00 | 94 | 1014.0 |
| 20260502064203 | 55 | 0 | 5.2 | 12.2 | 0.00 | 2.56 | 0.00 | 94 | 1014.0 |
| 20260502064103 | 55 | 37 | 5.2 | 12.2 | 0.00 | 2.56 | 0.00 | 94 | 1014.0 |
| 20260502064005 | 55 | 21 | 5.2 | 12.2 | 0.00 | 2.56 | 0.00 | 94 | 1013.9 |
| 20260502063902 | 55 | 11 | 5.2 | 12.2 | 0.00 | 2.56 | 0.00 | 94 | 1013.9 |
| 20260502063802 | 55 | 16 | 7.0 | 12.2 | 0.00 | 2.56 | 0.00 | 94 | 1013.9 |
| 20260502063703 | 55 | 37 | 7.8 | 12.2 | 0.00 | 2.56 | 0.00 | 94 | 1014.0 |
| 20260502063602 | 55 | 62 | 7.8 | 12.2 | 0.00 | 2.56 | 0.00 | 94 | 1014.0 |
| 20260502063502 | 55 | 39 | 6.1 | 12.2 | 0.00 | 2.56 | 0.00 | 94 | 1013.9 |
| 20260502063402 | 55 | 34 | 5.2 | 11.3 | 0.00 | 2.56 | 0.00 | 94 | 1014.0 |
| 20260502063302 | 55 | 20 | 5.2 | 11.3 | 0.00 | 2.56 | 0.00 | 94 | 1014.0 |
| 20260502063202 | 55 | 34 | 5.2 | 11.3 | 0.00 | 2.56 | 0.00 | 94 | 1014.0 |
| 20260502063102 | 55 | 39 | 4.3 | 11.3 | 0.00 | 2.56 | 0.00 | 94 | 1014.0 |
| 20260502063003 | 55 | 20 | 5.2 | 13.9 | 0.00 | 2.56 | 0.00 | 94 | 1014.0 |
| 20260502062902 | 55 | 42 | 5.2 | 13.9 | 0.00 | 2.56 | 0.00 | 94 | 1014.0 |
| 20260502062802 | 55 | 18 | 5.2 | 13.9 | 0.00 | 2.56 | 0.00 | 94 | 1013.9 |
| 20260502062703 | 55 | 0 | 7.8 | 13.9 | 0.00 | 2.56 | 0.00 | 94 | 1013.9 |
| 20260502062603 | 55 | 54 | 7.0 | 13.9 | 0.00 | 2.56 | 0.00 | 94 | 1014.0 |
| 20260502062502 | 55 | 8 | 5.2 | 13.9 | 0.00 | 2.56 | 0.00 | 94 | 1014.0 |
| 20260502062402 | 55 | 30 | 6.1 | 14.8 | 0.00 | 2.56 | 0.00 | 94 | 1014.0 |
| 20260502062306 | 55 | 27 | 7.0 | 15.6 | 0.00 | 2.56 | 0.00 | 94 | 1014.0 |
| 20260502062202 | 55 | 13 | 7.0 | 15.6 | 0.00 | 2.56 | 0.00 | 94 | 1014.0 |
| 20260502062101 | 55 | 38 | 6.1 | 15.6 | 0.00 | 2.56 | 0.00 | 94 | 1014.0 |
| 20260502062003 | 55 | 44 | 5.2 | 15.6 | 0.00 | 2.56 | 0.00 | 94 | 1014.0 |
| 20260502061903 | 55 | 345 | 5.2 | 15.6 | 0.00 | 2.56 | 0.00 | 94 | 1014.1 |
| 20260502061802 | 55 | 16 | 7.8 | 15.6 | 0.00 | 2.56 | 0.00 | 94 | 1014.0 |
| 20260502061703 | 55 | 54 | 7.8 | 15.6 | 0.00 | 2.56 | 0.00 | 94 | 1014.0 |
| 20260502061604 | 55 | 55 | 8.7 | 15.6 | 0.00 | 2.56 | 0.00 | 94 | 1014.0 |
| 20260502061502 | 55 | 21 | 9.6 | 15.6 | 0.00 | 2.56 | 0.00 | 94 | 1013.9 |
| 20260502061402 | 55 | 42 | 6.1 | 15.6 | 0.00 | 2.56 | 0.00 | 94 | 1014.0 |
| 20260502061303 | 55 | 34 | 4.3 | 11.3 | 0.00 | 2.56 | 0.00 | 94 | 1014.0 |
| 20260502061203 | 55 | 8 | 6.1 | 11.3 | 0.00 | 2.56 | 0.00 | 94 | 1014.1 |
| 20260502061103 | 55 | 18 | 7.0 | 11.3 | 0.00 | 2.56 | 0.00 | 94 | 1014.0 |
| 20260502061002 | 55 | 31 | 7.8 | 11.3 | 0.00 | 2.56 | 0.00 | 94 | 1014.0 |
| 20260502060903 | 55 | 17 | 7.0 | 11.3 | 0.00 | 2.56 | 0.00 | 94 | 1014.0 |
| 20260502060802 | 55 | 7 | 5.2 | 10.4 | 0.00 | 2.56 | 0.00 | 94 | 1014.0 |
| 20260502060702 | 55 | 7 | 5.2 | 10.4 | 0.00 | 2.56 | 0.00 | 94 | 1014.0 |
| 20260502060603 | 55 | 0 | 6.1 | 10.4 | 0.00 | 2.56 | 0.00 | 94 | 1014.0 |
| 20260502060502 | 55 | 14 | 5.2 | 10.4 | 0.00 | 2.56 | 0.00 | 95 | 1014.1 |
| 20260502060403 | 55 | 24 | 6.1 | 10.4 | 0.00 | 2.56 | 0.00 | 94 | 1014.0 |
| 20260502060303 | 55 | 17 | 6.1 | 10.4 | 0.00 | 2.56 | 0.00 | 94 | 1014.0 |
| 20260502060202 | 55 | 48 | 5.2 | 10.4 | 0.00 | 2.57 | 0.00 | 94 | 1014.0 |
| 20260502060104 | 55 | 10 | 4.3 | 10.4 | 0.00 | 2.57 | 0.00 | 94 | 1014.0 |
| 20260502060002 | 55 | 0 | 5.2 | 10.4 | 0.00 | 2.57 | 0.00 | 94 | 1013.9 |
| 20260502055903 | 55 | 338 | 5.2 | 10.4 | 0.00 | 2.57 | 0.00 | 94 | 1013.9 |
| 20260502055802 | 55 | 27 | 4.3 | 10.4 | 0.00 | 2.57 | 0.00 | 94 | 1013.8 |
| 20260502055701 | 55 | 17 | 6.1 | 10.4 | 0.00 | 2.57 | 0.00 | 95 | 1013.9 |
| 20260502055603 | 55 | 358 | 6.1 | 10.4 | 0.00 | 2.57 | 0.00 | 94 | 1013.9 |
| 20260502055504 | 55 | 25 | 6.1 | 11.3 | 0.00 | 2.57 | 0.00 | 95 | 1013.9 |
| 20260502055402 | 55 | 7 | 7.0 | 11.3 | 0.00 | 2.57 | 0.00 | 94 | 1013.8 |
| 20260502055305 | 55 | 28 | 6.1 | 13.0 | 0.00 | 2.57 | 0.00 | 94 | 1013.8 |
| 20260502055202 | 55 | 39 | 6.1 | 13.0 | 0.00 | 2.58 | 0.00 | 94 | 1013.8 |
| 20260502055101 | 55 | 20 | 5.2 | 13.0 | 0.00 | 2.58 | 0.00 | 94 | 1013.9 |
| 20260502055002 | 55 | 18 | 5.2 | 13.0 | 0.00 | 2.58 | 0.00 | 94 | 1013.8 |
| 20260502054904 | 55 | 16 | 5.2 | 14.8 | 0.00 | 2.58 | 0.00 | 95 | 1013.7 |
| 20260502054802 | 55 | 0 | 5.2 | 14.8 | 0.00 | 2.58 | 0.00 | 95 | 1013.8 |
| 20260502054701 | 55 | 28 | 6.1 | 14.8 | 0.00 | 2.58 | 0.00 | 94 | 1013.7 |
| 20260502054603 | 55 | 8 | 7.8 | 14.8 | 0.00 | 2.58 | 0.00 | 95 | 1013.7 |
| 20260502054504 | 55 | 24 | 8.7 | 14.8 | 0.00 | 2.58 | 0.00 | 94 | 1013.7 |
| 20260502054402 | 55 | 21 | 8.7 | 14.8 | 0.00 | 2.58 | 0.00 | 94 | 1013.8 |
| 20260502054302 | 55 | 6 | 7.0 | 15.6 | 0.00 | 2.58 | 0.00 | 94 | 1013.7 |
| 20260502054203 | 55 | 14 | 6.1 | 15.6 | 0.00 | 2.58 | 0.00 | 94 | 1013.8 |
| 20260502054102 | 55 | 17 | 7.0 | 18.2 | 0.00 | 2.58 | 0.00 | 95 | 1013.8 |
| 20260502054004 | 55 | 14 | 8.7 | 18.2 | 0.00 | 2.58 | 0.00 | 95 | 1013.8 |
| 20260502053904 | 55 | 1 | 7.0 | 18.2 | 0.00 | 2.58 | 0.00 | 94 | 1013.9 |
| 20260502053802 | 55 | 14 | 6.1 | 18.2 | 0.00 | 2.58 | 0.00 | 95 | 1013.8 |
| 20260502053703 | 55 | 24 | 5.2 | 18.2 | 0.00 | 2.58 | 0.00 | 95 | 1013.9 |
| 20260502053603 | 55 | 0 | 6.1 | 18.2 | 0.00 | 2.58 | 0.00 | 94 | 1013.8 |
| 20260502053505 | 55 | 17 | 8.7 | 18.2 | 0.00 | 2.58 | 0.00 | 94 | 1013.9 |
| 20260502053404 | 55 | 25 | 9.6 | 18.2 | 0.00 | 2.58 | 0.00 | 95 | 1013.9 |
| 20260502053302 | 55 | 343 | 8.7 | 18.2 | 0.00 | 2.59 | 0.00 | 95 | 1014.0 |
| 20260502053203 | 55 | 24 | 7.8 | 18.2 | 0.00 | 2.59 | 0.00 | 95 | 1014.0 |
| 20260502053102 | 55 | 10 | 7.8 | 15.6 | 0.00 | 2.59 | 0.00 | 95 | 1014.0 |
| 20260502053002 | 55 | 6 | 7.8 | 15.6 | 0.00 | 2.59 | 0.00 | 95 | 1014.0 |
| 20260502052902 | 55 | 31 | 5.2 | 15.6 | 0.00 | 2.59 | 0.00 | 95 | 1014.0 |
| 20260502052803 | 55 | 13 | 7.0 | 15.6 | 0.00 | 2.59 | 0.00 | 95 | 1014.0 |
| 20260502052703 | 55 | 24 | 8.7 | 15.6 | 0.00 | 2.59 | 0.00 | 95 | 1013.9 |
| 20260502052603 | 55 | 6 | 8.7 | 15.6 | 0.00 | 2.59 | 0.00 | 95 | 1013.9 |
| 20260502052504 | 55 | 27 | 7.8 | 15.6 | 0.00 | 2.59 | 0.00 | 95 | 1014.0 |
| 20260502052403 | 55 | 32 | 5.2 | 15.6 | 0.00 | 2.59 | 0.00 | 95 | 1013.9 |
| 20260502052305 | 55 | 30 | 4.3 | 15.6 | 0.00 | 2.60 | 0.00 | 95 | 1013.9 |
| 20260502052203 | 55 | 21 | 5.2 | 15.6 | 0.00 | 2.60 | 0.00 | 95 | 1014.0 |
| 20260502052102 | 55 | 20 | 7.8 | 15.6 | 0.00 | 2.60 | 0.00 | 95 | 1014.0 |
| 20260502052004 | 55 | 11 | 7.8 | 15.6 | 0.00 | 2.60 | 0.00 | 95 | 1014.0 |
| 20260502051903 | 55 | 25 | 6.1 | 13.0 | 0.00 | 2.60 | 0.00 | 95 | 1014.0 |
| 20260502051804 | 55 | 16 | 6.1 | 13.0 | 0.00 | 2.61 | 0.00 | 95 | 1014.0 |
| 20260502051701 | 55 | 0 | 7.0 | 13.0 | 0.00 | 2.61 | 0.00 | 95 | 1014.0 |
| 20260502051603 | 55 | 25 | 8.7 | 13.0 | 0.00 | 2.62 | 0.00 | 95 | 1014.0 |
| 20260502051503 | 56 | 0 | 7.8 | 13.0 | 0.00 | 2.63 | 0.00 | 95 | 1013.9 |
| 20260502051403 | 56 | 24 | 6.1 | 13.0 | 0.00 | 2.63 | 0.00 | 95 | 1013.9 |
| 20260502051304 | 56 | 42 | 5.2 | 13.0 | 0.00 | 2.65 | 0.00 | 95 | 1013.9 |
| 20260502051201 | 56 | 35 | 5.2 | 13.0 | 0.00 | 2.65 | 0.00 | 95 | 1014.0 |
| 20260502051102 | 56 | 331 | 6.1 | 13.0 | 0.00 | 2.65 | 0.00 | 95 | 1013.9 |
| 20260502051002 | 56 | 47 | 7.0 | 13.0 | 0.00 | 2.67 | 0.00 | 95 | 1013.9 |
| 20260502050901 | 56 | 38 | 8.7 | 13.0 | 0.00 | 2.70 | 0.00 | 95 | 1014.0 |
| 20260502050803 | 56 | 10 | 7.8 | 13.0 | 0.00 | 2.70 | 0.00 | 95 | 1013.9 |
| 20260502050703 | 56 | 17 | 6.1 | 11.3 | 0.00 | 2.70 | 0.00 | 95 | 1013.9 |
| 20260502050601 | 56 | 27 | 7.0 | 12.2 | 0.00 | 2.70 | 0.00 | 95 | 1013.9 |
| 20260502050504 | 56 | 10 | 7.8 | 12.2 | 0.00 | 2.70 | 0.00 | 95 | 1013.9 |
| 20260502050403 | 56 | 31 | 5.2 | 12.2 | 0.00 | 2.72 | 0.00 | 95 | 1013.9 |
| 20260502050302 | 56 | 31 | 3.5 | 12.2 | 0.00 | 2.73 | 0.00 | 95 | 1013.9 |
| 20260502050201 | 56 | 34 | 3.5 | 12.2 | 0.00 | 2.74 | 0.00 | 95 | 1013.9 |
| 20260502050002 | 56 | 25 | 4.3 | 12.2 | 0.00 | 2.76 | 0.00 | 95 | 1014.0 |
| 20260502045902 | 56 | 358 | 4.3 | 12.2 | 0.00 | 2.76 | 2.96 | 95 | 1013.9 |
| 20260502045803 | 56 | 16 | 7.0 | 12.2 | 0.00 | 2.76 | 2.96 | 95 | 1013.9 |
| 20260502045703 | 56 | 28 | 7.0 | 12.2 | 0.00 | 2.76 | 2.96 | 95 | 1014.0 |
| 20260502045603 | 56 | 21 | 5.2 | 11.3 | 0.00 | 2.76 | 2.96 | 95 | 1013.9 |
| 20260502045502 | 56 | 24 | 6.1 | 11.3 | 0.00 | 2.76 | 2.96 | 95 | 1013.9 |
| 20260502045404 | 56 | 49 | 5.2 | 13.0 | 0.00 | 2.76 | 2.96 | 95 | 1014.0 |
| 20260502045305 | 56 | 47 | 5.2 | 13.0 | 0.00 | 2.76 | 2.96 | 95 | 1013.9 |
| 20260502045202 | 56 | 11 | 5.2 | 13.0 | 0.00 | 2.76 | 2.96 | 95 | 1013.9 |
| 20260502045104 | 56 | 0 | 7.0 | 13.0 | 0.00 | 2.76 | 2.96 | 95 | 1013.9 |
| 20260502045004 | 56 | 32 | 5.2 | 13.0 | 0.00 | 2.76 | 2.96 | 95 | 1013.9 |
| 20260502044904 | 56 | 28 | 5.2 | 13.0 | 0.00 | 2.76 | 2.96 | 95 | 1013.9 |
| 20260502044802 | 56 | 0 | 7.8 | 13.0 | 0.00 | 2.76 | 2.96 | 95 | 1014.0 |
| 20260502044702 | 56 | 23 | 7.8 | 13.0 | 0.00 | 2.76 | 2.96 | 95 | 1014.0 |
| 20260502044602 | 56 | 30 | 7.0 | 13.0 | 0.00 | 2.76 | 2.96 | 95 | 1014.0 |
| 20260502044504 | 56 | 13 | 7.8 | 13.0 | 0.00 | 2.76 | 2.96 | 95 | 1014.0 |
| 20260502044403 | 56 | 35 | 6.1 | 12.2 | 0.00 | 2.76 | 2.96 | 95 | 1014.0 |
| 20260502044301 | 56 | 10 | 3.5 | 10.4 | 0.00 | 2.76 | 2.96 | 95 | 1014.0 |
| 20260502044202 | 56 | 358 | 5.2 | 10.4 | 0.00 | 2.76 | 2.96 | 95 | 1014.0 |
| 20260502044103 | 56 | 358 | 6.1 | 10.4 | 0.00 | 2.76 | 2.96 | 95 | 1014.0 |
| 20260502044003 | 56 | 11 | 7.0 | 11.3 | 0.00 | 2.76 | 2.96 | 95 | 1014.1 |
| 20260502043904 | 56 | 20 | 6.1 | 11.3 | 0.00 | 2.76 | 2.96 | 95 | 1014.0 |
| 20260502043803 | 56 | 27 | 3.5 | 13.0 | 0.00 | 2.76 | 2.96 | 95 | 1014.0 |
| 20260502043703 | 56 | 14 | 5.2 | 15.6 | 0.00 | 2.76 | 2.96 | 95 | 1014.0 |
| 20260502043604 | 56 | 14 | 5.2 | 15.6 | 0.00 | 2.76 | 2.96 | 95 | 1013.9 |
| 20260502043503 | 56 | 32 | 6.1 | 15.6 | 0.00 | 2.76 | 2.96 | 95 | 1013.8 |
| 20260502043404 | 56 | 16 | 5.2 | 15.6 | 0.00 | 2.76 | 2.96 | 95 | 1013.8 |
| 20260502043303 | 56 | 358 | 5.2 | 15.6 | 0.00 | 2.76 | 2.96 | 95 | 1013.8 |
| 20260502043204 | 56 | 38 | 7.8 | 15.6 | 0.00 | 2.76 | 2.96 | 95 | 1013.8 |
| 20260502043103 | 56 | 41 | 7.8 | 15.6 | 0.00 | 2.76 | 2.96 | 95 | 1013.8 |
| 20260502043006 | 56 | 28 | 7.8 | 15.6 | 0.00 | 2.76 | 2.96 | 95 | 1013.8 |
| 20260502042904 | 56 | 30 | 10.4 | 15.6 | 0.00 | 2.76 | 2.96 | 95 | 1013.7 |
| 20260502042802 | 56 | 0 | 8.7 | 15.6 | 0.00 | 2.76 | 2.96 | 95 | 1013.8 |
| 20260502042704 | 56 | 62 | 6.1 | 11.3 | 0.00 | 2.76 | 2.96 | 95 | 1013.8 |
| 20260502042603 | 56 | 7 | 5.2 | 11.3 | 0.00 | 2.76 | 2.96 | 95 | 1013.8 |
| 20260502042504 | 56 | 39 | 3.5 | 11.3 | 0.00 | 2.76 | 2.96 | 95 | 1013.9 |
| 20260502042404 | 56 | 0 | 4.3 | 11.3 | 0.00 | 2.76 | 2.96 | 95 | 1013.8 |
| 20260502042305 | 56 | 0 | 6.1 | 11.3 | 0.00 | 2.76 | 2.96 | 95 | 1013.8 |
| 20260502042201 | 56 | 10 | 7.8 | 11.3 | 0.00 | 2.76 | 2.96 | 95 | 1013.9 |
| 20260502042102 | 56 | 355 | 6.1 | 11.3 | 0.00 | 2.76 | 2.96 | 95 | 1013.9 |
| 20260502042004 | 56 | 347 | 5.2 | 11.3 | 0.00 | 2.76 | 2.96 | 95 | 1013.9 |
| 20260502041901 | 56 | 25 | 5.2 | 11.3 | 0.00 | 2.76 | 2.96 | 95 | 1013.9 |
| 20260502041801 | 56 | 1 | 6.1 | 11.3 | 0.00 | 2.76 | 2.96 | 95 | 1013.9 |
| 20260502041703 | 56 | 0 | 7.0 | 13.0 | 0.00 | 2.76 | 2.96 | 95 | 1014.0 |
| 20260502041602 | 56 | 348 | 6.1 | 13.0 | 0.00 | 2.76 | 2.96 | 95 | 1014.0 |
| 20260502041501 | 56 | 324 | 7.0 | 13.0 | 0.00 | 2.76 | 2.96 | 95 | 1013.9 |
| 20260502041404 | 56 | 7 | 6.1 | 13.0 | 0.00 | 2.76 | 2.96 | 95 | 1014.0 |
| 20260502041304 | 56 | 350 | 4.3 | 13.0 | 0.00 | 2.76 | 2.96 | 95 | 1014.0 |
| 20260502041202 | 56 | 358 | 5.2 | 13.0 | 0.00 | 2.76 | 2.96 | 95 | 1014.0 |
| 20260502041102 | 56 | 348 | 5.2 | 13.0 | 0.00 | 2.76 | 2.96 | 95 | 1014.0 |
| 20260502041004 | 56 | 10 | 6.1 | 13.0 | 0.00 | 2.76 | 2.96 | 95 | 1013.9 |
| 20260502040902 | 56 | 20 | 7.8 | 13.0 | 0.00 | 2.76 | 2.96 | 95 | 1014.0 |
| 20260502040801 | 56 | 1 | 7.8 | 13.0 | 0.00 | 2.76 | 2.96 | 95 | 1013.9 |
| 20260502040703 | 56 | 14 | 6.1 | 13.0 | 0.01 | 2.76 | 2.96 | 95 | 1013.9 |
| 20260502040604 | 56 | 37 | 5.2 | 17.4 | 0.01 | 2.76 | 2.96 | 95 | 1013.9 |
| 20260502040502 | 56 | 11 | 5.2 | 17.4 | 0.01 | 2.76 | 2.96 | 95 | 1013.9 |
| 20260502040401 | 56 | 21 | 5.2 | 17.4 | 0.01 | 2.76 | 2.96 | 95 | 1014.0 |
| 20260502040300 | 56 | 18 | 6.1 | 17.4 | 0.01 | 2.76 | 2.96 | 95 | 1013.9 |
| 20260502040158 | 56 | 38 | 7.0 | 17.4 | 0.01 | 2.76 | 2.96 | 95 | 1013.9 |
| 20260502040059 | 56 | 13 | 5.2 | 17.4 | 0.01 | 2.76 | 2.96 | 95 | 1014.0 |
| 20260502035958 | 56 | 8 | 7.0 | 17.4 | 0.01 | 2.75 | 2.96 | 95 | 1013.9 |
| 20260502035857 | 56 | 334 | 7.0 | 17.4 | 0.01 | 2.75 | 2.96 | 95 | 1013.9 |
| 20260502035756 | 56 | 0 | 7.0 | 17.4 | 0.01 | 2.75 | 2.96 | 95 | 1014.0 |
| 20260502035654 | 56 | 0 | 7.8 | 17.4 | 0.01 | 2.75 | 2.96 | 95 | 1013.9 |
| 20260502035553 | 56 | 30 | 6.1 | 17.4 | 0.01 | 2.75 | 2.96 | 95 | 1013.8 |
| 20260502035451 | 56 | 28 | 8.7 | 17.4 | 0.01 | 2.75 | 2.96 | 95 | 1013.8 |
| 20260502035339 | 56 | 34 | 7.8 | 17.4 | 0.01 | 2.75 | 2.96 | 95 | 1013.7 |
| 20260502035238 | 56 | 350 | 7.8 | 17.4 | 0.01 | 2.75 | 2.96 | 95 | 1013.7 |
| 20260502035137 | 56 | 0 | 7.8 | 17.4 | 0.01 | 2.75 | 2.96 | 95 | 1013.7 |
| 20260502035034 | 56 | 17 | 8.7 | 17.4 | 0.01 | 2.75 | 2.96 | 95 | 1013.6 |
| 20260502034933 | 56 | 18 | 9.6 | 17.4 | 0.01 | 2.75 | 2.96 | 95 | 1013.5 |
| 20260502034832 | 56 | 0 | 8.7 | 17.4 | 0.01 | 2.75 | 2.96 | 95 | 1013.6 |
| 20260502034731 | 56 | 13 | 8.7 | 15.6 | 0.01 | 2.75 | 2.96 | 95 | 1013.5 |
| 20260502034631 | 56 | 0 | 8.7 | 15.6 | 0.01 | 2.75 | 2.96 | 95 | 1013.5 |
| 20260502034532 | 56 | 333 | 6.1 | 15.6 | 0.01 | 2.75 | 2.96 | 95 | 1013.5 |
| 20260502034431 | 56 | 358 | 6.1 | 13.9 | 0.01 | 2.75 | 2.96 | 95 | 1013.7 |
| 20260502034332 | 56 | 10 | 6.1 | 13.9 | 0.01 | 2.75 | 2.96 | 95 | 1013.6 |
| 20260502034230 | 56 | 358 | 6.1 | 13.9 | 0.01 | 2.75 | 2.96 | 95 | 1013.5 |
| 20260502034132 | 56 | 337 | 7.8 | 13.9 | 0.01 | 2.75 | 2.96 | 95 | 1013.5 |
| 20260502034030 | 56 | 32 | 7.8 | 13.9 | 0.01 | 2.75 | 2.96 | 95 | 1013.5 |
| 20260502033928 | 56 | 343 | 7.8 | 13.9 | 0.01 | 2.75 | 2.96 | 95 | 1013.5 |
| 20260502033827 | 56 | 355 | 7.0 | 13.9 | 0.01 | 2.75 | 2.96 | 95 | 1013.5 |
| 20260502033725 | 56 | 344 | 7.8 | 13.9 | 0.01 | 2.75 | 2.96 | 95 | 1013.4 |
| 20260502033625 | 56 | 357 | 7.8 | 13.9 | 0.01 | 2.75 | 2.96 | 95 | 1013.5 |
| 20260502033523 | 56 | 348 | 7.8 | 13.9 | 0.01 | 2.75 | 2.96 | 95 | 1013.4 |
| 20260502033421 | 56 | 0 | 7.8 | 13.0 | 0.01 | 2.75 | 2.96 | 95 | 1013.5 |
| 20260502033319 | 56 | 10 | 6.1 | 11.3 | 0.02 | 2.75 | 2.96 | 95 | 1013.4 |
| 20260502033217 | 56 | 1 | 5.2 | 12.2 | 0.02 | 2.75 | 2.96 | 95 | 1013.4 |
| 20260502033117 | 56 | 0 | 5.2 | 14.8 | 0.02 | 2.75 | 2.96 | 95 | 1013.3 |
| 20260502033016 | 56 | 20 | 5.2 | 14.8 | 0.02 | 2.75 | 2.96 | 95 | 1013.3 |
| 20260502032914 | 56 | 350 | 5.2 | 14.8 | 0.02 | 2.75 | 2.96 | 95 | 1013.4 |
| 20260502032813 | 56 | 358 | 6.1 | 14.8 | 0.02 | 2.75 | 2.96 | 95 | 1013.3 |
| 20260502032711 | 56 | 1 | 5.2 | 14.8 | 0.02 | 2.75 | 2.96 | 95 | 1013.3 |
| 20260502032611 | 56 | 351 | 4.3 | 14.8 | 0.02 | 2.75 | 2.96 | 95 | 1013.1 |
| 20260502032513 | 56 | 354 | 5.2 | 14.8 | 0.02 | 2.75 | 2.96 | 95 | 1013.3 |
| 20260502032412 | 56 | 6 | 7.0 | 14.8 | 0.02 | 2.75 | 2.96 | 95 | 1013.2 |
| 20260502032312 | 56 | 18 | 8.7 | 14.8 | 0.02 | 2.75 | 2.96 | 95 | 1013.0 |
| 20260502032211 | 56 | 7 | 7.8 | 13.9 | 0.02 | 2.75 | 2.96 | 95 | 1013.1 |
| 20260502032112 | 56 | 24 | 7.8 | 13.0 | 0.02 | 2.75 | 2.96 | 95 | 1013.1 |
| 20260502032013 | 56 | 357 | 7.0 | 13.0 | 0.02 | 2.75 | 2.96 | 95 | 1013.0 |
| 20260502031912 | 56 | 1 | 5.2 | 13.0 | 0.02 | 2.75 | 2.96 | 95 | 1013.0 |
| 20260502031812 | 56 | 357 | 6.1 | 13.0 | 0.02 | 2.75 | 2.96 | 95 | 1013.0 |
| 20260502031711 | 56 | 39 | 7.8 | 13.0 | 0.02 | 2.75 | 2.96 | 95 | 1013.0 |
| 20260502031611 | 56 | 357 | 7.0 | 13.9 | 0.02 | 2.75 | 2.96 | 95 | 1013.0 |
| 20260502031512 | 56 | 1 | 5.2 | 13.9 | 0.02 | 2.75 | 2.96 | 95 | 1012.9 |
| 20260502031413 | 56 | 14 | 7.0 | 13.9 | 0.02 | 2.75 | 2.96 | 95 | 1012.8 |
| 20260502031312 | 56 | 39 | 6.1 | 13.9 | 0.03 | 2.75 | 2.96 | 95 | 1012.9 |
| 20260502031211 | 56 | 1 | 6.1 | 13.9 | 0.03 | 2.75 | 2.96 | 95 | 1012.9 |
| 20260502031112 | 56 | 4 | 6.1 | 13.9 | 0.03 | 2.75 | 2.96 | 95 | 1012.9 |
| 20260502031011 | 56 | 28 | 6.1 | 13.9 | 0.03 | 2.75 | 2.96 | 95 | 1012.9 |
| 20260502030913 | 56 | 20 | 7.0 | 13.9 | 0.03 | 2.75 | 2.96 | 95 | 1012.9 |
| 20260502030812 | 56 | 334 | 7.8 | 13.9 | 0.03 | 2.75 | 2.96 | 95 | 1012.8 |
| 20260502030712 | 56 | 3 | 6.1 | 13.9 | 0.03 | 2.75 | 2.95 | 95 | 1012.9 |
| 20260502030611 | 56 | 354 | 6.1 | 18.2 | 0.02 | 2.75 | 2.95 | 95 | 1012.8 |
| 20260502030513 | 56 | 16 | 7.8 | 18.2 | 0.02 | 2.75 | 2.95 | 95 | 1012.8 |
| 20260502030411 | 56 | 6 | 7.8 | 18.2 | 0.02 | 2.75 | 2.95 | 95 | 1012.7 |
| 20260502030312 | 56 | 32 | 6.1 | 18.2 | 0.02 | 2.75 | 2.95 | 95 | 1012.6 |
| 20260502030213 | 56 | 355 | 5.2 | 18.2 | 0.02 | 2.75 | 2.95 | 95 | 1012.5 |
| 20260502030112 | 56 | 0 | 6.1 | 18.2 | 0.02 | 2.75 | 2.95 | 95 | 1012.4 |
| 20260502030011 | 56 | 4 | 5.2 | 18.2 | 0.02 | 2.73 | 2.95 | 95 | 1012.3 |
| 20260502025911 | 56 | 28 | 7.0 | 18.2 | 0.02 | 2.73 | 2.95 | 95 | 1012.2 |
| 20260502025811 | 56 | 31 | 10.4 | 18.2 | 0.02 | 2.73 | 2.95 | 95 | 1012.2 |
| 20260502025712 | 56 | 6 | 11.3 | 18.2 | 0.02 | 2.73 | 2.95 | 95 | 1012.1 |
| 20260502025612 | 56 | 20 | 7.8 | 15.6 | 0.02 | 2.73 | 2.95 | 95 | 1012.2 |
| 20260502025511 | 56 | 3 | 6.1 | 15.6 | 0.02 | 2.73 | 2.95 | 95 | 1012.3 |
| 20260502025412 | 56 | 3 | 5.2 | 15.6 | 0.02 | 2.73 | 2.95 | 95 | 1012.4 |
| 20260502025311 | 56 | 17 | 7.8 | 15.6 | 0.02 | 2.73 | 2.95 | 95 | 1012.5 |
| 20260502025210 | 56 | 30 | 9.6 | 16.5 | 0.02 | 2.73 | 2.95 | 95 | 1012.5 |
| 20260502025111 | 56 | 336 | 8.7 | 16.5 | 0.02 | 2.73 | 2.95 | 95 | 1012.4 |
| 20260502025010 | 56 | 355 | 7.8 | 16.5 | 0.03 | 2.73 | 2.95 | 95 | 1012.4 |
| 20260502024911 | 56 | 4 | 7.8 | 16.5 | 0.03 | 2.73 | 2.95 | 95 | 1012.3 |
| 20260502024810 | 56 | 350 | 7.8 | 16.5 | 0.03 | 2.73 | 2.95 | 95 | 1012.2 |
| 20260502024710 | 56 | 31 | 8.7 | 16.5 | 0.03 | 2.73 | 2.95 | 95 | 1012.2 |
| 20260502024612 | 56 | 343 | 9.6 | 16.5 | 0.03 | 2.73 | 2.95 | 95 | 1012.2 |
| 20260502024511 | 56 | 0 | 7.8 | 16.5 | 0.03 | 2.73 | 2.95 | 96 | 1012.2 |
| 20260502024411 | 56 | 16 | 7.8 | 16.5 | 0.03 | 2.73 | 2.95 | 95 | 1012.1 |
| 20260502024311 | 56 | 28 | 7.8 | 16.5 | 0.03 | 2.73 | 2.95 | 96 | 1012.0 |
| 20260502024210 | 56 | 18 | 7.8 | 13.9 | 0.03 | 2.73 | 2.95 | 95 | 1012.1 |
| 20260502024110 | 56 | 28 | 8.7 | 13.9 | 0.03 | 2.73 | 2.95 | 96 | 1012.0 |
| 20260502024012 | 56 | 37 | 7.8 | 13.9 | 0.03 | 2.73 | 2.95 | 96 | 1012.2 |
| 20260502023910 | 56 | 6 | 7.0 | 13.9 | 0.03 | 2.73 | 2.95 | 96 | 1012.2 |
| 20260502023811 | 56 | 0 | 7.0 | 13.9 | 0.03 | 2.73 | 2.95 | 95 | 1012.3 |
| 20260502023710 | 56 | 353 | 8.7 | 13.9 | 0.04 | 2.73 | 2.95 | 95 | 1012.3 |
| 20260502023611 | 56 | 358 | 9.6 | 13.9 | 0.04 | 2.73 | 2.95 | 95 | 1012.5 |
| 20260502023510 | 56 | 17 | 9.6 | 13.0 | 0.04 | 2.73 | 2.95 | 95 | 1012.5 |
| 20260502023411 | 56 | 341 | 9.6 | 13.0 | 0.05 | 2.73 | 2.95 | 96 | 1012.5 |
| 20260502023311 | 56 | 0 | 5.2 | 13.0 | 0.04 | 2.73 | 2.94 | 95 | 1012.6 |
| 20260502023212 | 56 | 0 | 5.2 | 13.0 | 0.04 | 2.73 | 2.94 | 95 | 1012.6 |
| 20260502023111 | 56 | 0 | 5.2 | 13.0 | 0.04 | 2.73 | 2.94 | 95 | 1012.6 |
| 20260502023012 | 56 | 0 | 5.2 | 13.0 | 0.04 | 2.73 | 2.94 | 95 | 1012.4 |
| 20260502022911 | 56 | 8 | 5.2 | 13.0 | 0.04 | 2.73 | 2.94 | 95 | 1012.5 |
| 20260502022810 | 56 | 358 | 7.0 | 13.0 | 0.05 | 2.73 | 2.94 | 95 | 1012.5 |
| 20260502022711 | 56 | 358 | 7.8 | 13.0 | 0.05 | 2.73 | 2.94 | 95 | 1012.6 |
| 20260502022611 | 56 | 18 | 7.8 | 13.0 | 0.05 | 2.73 | 2.94 | 95 | 1012.5 |
| 20260502022510 | 56 | 358 | 7.8 | 12.2 | 0.05 | 2.73 | 2.94 | 95 | 1012.4 |
| 20260502022411 | 57 | 13 | 7.0 | 12.2 | 0.06 | 2.73 | 2.94 | 95 | 1012.3 |
| 20260502022311 | 57 | 4 | 5.2 | 13.0 | 0.06 | 2.73 | 2.94 | 95 | 1012.2 |
| 20260502022211 | 56 | 37 | 7.0 | 13.0 | 0.06 | 2.73 | 2.94 | 95 | 1012.2 |
| 20260502022111 | 57 | 8 | 7.8 | 13.0 | 0.06 | 2.73 | 2.94 | 95 | 1012.1 |
| 20260502022010 | 57 | 30 | 7.8 | 13.0 | 0.06 | 2.73 | 2.94 | 95 | 1012.0 |
| 20260502021911 | 57 | 0 | 6.1 | 13.0 | 0.07 | 2.73 | 2.94 | 95 | 1012.1 |
| 20260502021810 | 57 | 345 | 5.2 | 13.0 | 0.07 | 2.73 | 2.94 | 95 | 1012.1 |
| 20260502021711 | 57 | 16 | 6.1 | 13.0 | 0.07 | 2.73 | 2.94 | 95 | 1012.1 |
| 20260502021611 | 57 | 17 | 6.1 | 13.0 | 0.07 | 2.73 | 2.94 | 95 | 1012.2 |
| 20260502021510 | 57 | 336 | 7.8 | 13.0 | 0.07 | 2.73 | 2.94 | 95 | 1012.2 |
| 20260502021410 | 57 | 16 | 8.7 | 13.0 | 0.07 | 2.73 | 2.93 | 95 | 1012.2 |
| 20260502021310 | 57 | 11 | 7.0 | 12.2 | 0.06 | 2.73 | 2.93 | 95 | 1012.2 |
| 20260502021210 | 57 | 0 | 7.0 | 12.2 | 0.06 | 2.73 | 2.93 | 95 | 1012.3 |
| 20260502021110 | 57 | 7 | 7.8 | 12.2 | 0.06 | 2.73 | 2.93 | 95 | 1012.2 |
| 20260502021010 | 57 | 37 | 7.0 | 12.2 | 0.06 | 2.73 | 2.93 | 95 | 1012.3 |
| 20260502020912 | 57 | 1 | 6.1 | 12.2 | 0.06 | 2.73 | 2.93 | 95 | 1012.3 |
| 20260502020811 | 57 | 3 | 7.8 | 12.2 | 0.06 | 2.73 | 2.93 | 95 | 1012.2 |
| 20260502020710 | 57 | 0 | 6.1 | 12.2 | 0.06 | 2.73 | 2.93 | 95 | 1012.2 |
| 20260502020610 | 57 | 24 | 5.2 | 10.4 | 0.07 | 2.73 | 2.93 | 95 | 1012.3 |
| 20260502020512 | 57 | 7 | 6.1 | 10.4 | 0.07 | 2.73 | 2.93 | 95 | 1012.2 |
| 20260502020410 | 57 | 341 | 6.1 | 10.4 | 0.07 | 2.73 | 2.93 | 95 | 1012.2 |
| 20260502020310 | 57 | 0 | 6.1 | 12.2 | 0.07 | 2.73 | 2.93 | 95 | 1012.2 |
| 20260502020209 | 57 | 11 | 6.1 | 12.2 | 0.07 | 2.73 | 2.93 | 95 | 1012.2 |
| 20260502020110 | 57 | 0 | 5.2 | 12.2 | 0.07 | 2.73 | 2.93 | 96 | 1012.3 |
| 20260502020009 | 57 | 355 | 5.2 | 14.8 | 0.07 | 2.66 | 2.93 | 96 | 1012.2 |
| 20260502015909 | 57 | 0 | 5.2 | 14.8 | 0.07 | 2.66 | 2.93 | 96 | 1012.3 |
| 20260502015811 | 57 | 336 | 5.2 | 14.8 | 0.07 | 2.66 | 2.93 | 96 | 1012.1 |
| 20260502015710 | 57 | 0 | 7.0 | 14.8 | 0.07 | 2.66 | 2.93 | 96 | 1012.1 |
| 20260502015610 | 57 | 358 | 7.0 | 14.8 | 0.07 | 2.66 | 2.93 | 95 | 1012.1 |
| 20260502015510 | 57 | 358 | 7.0 | 14.8 | 0.08 | 2.66 | 2.93 | 95 | 1012.1 |
| 20260502015410 | 57 | 17 | 7.0 | 14.8 | 0.08 | 2.66 | 2.93 | 95 | 1012.0 |
| 20260502015309 | 57 | 21 | 7.0 | 14.8 | 0.08 | 2.66 | 2.93 | 95 | 1012.0 |
| 20260502015209 | 57 | 358 | 8.7 | 14.8 | 0.09 | 2.66 | 2.93 | 95 | 1012.1 |
| 20260502015109 | 57 | 354 | 7.8 | 14.8 | 0.09 | 2.66 | 2.93 | 95 | 1012.1 |
| 20260502015009 | 57 | 0 | 5.2 | 13.0 | 0.08 | 2.66 | 2.92 | 95 | 1012.0 |
| 20260502014909 | 58 | 358 | 6.1 | 16.5 | 0.09 | 2.66 | 2.92 | 95 | 1011.9 |
| 20260502014810 | 58 | 0 | 6.1 | 16.5 | 0.09 | 2.66 | 2.92 | 95 | 1011.9 |
| 20260502014709 | 58 | 314 | 7.0 | 16.5 | 0.10 | 2.66 | 2.92 | 95 | 1011.8 |
| 20260502014612 | 58 | 329 | 7.0 | 16.5 | 0.10 | 2.66 | 2.92 | 95 | 1011.8 |
| 20260502014509 | 58 | 337 | 5.2 | 16.5 | 0.10 | 2.66 | 2.92 | 95 | 1011.7 |
| 20260502014410 | 58 | 0 | 6.1 | 16.5 | 0.10 | 2.66 | 2.92 | 95 | 1011.7 |
| 20260502014309 | 58 | 4 | 6.1 | 16.5 | 0.11 | 2.66 | 2.92 | 95 | 1011.6 |
| 20260502014210 | 58 | 4 | 6.1 | 16.5 | 0.11 | 2.66 | 2.92 | 95 | 1011.6 |
| 20260502014111 | 58 | 31 | 7.8 | 16.5 | 0.12 | 2.66 | 2.92 | 95 | 1011.4 |
| 20260502014010 | 58 | 0 | 10.4 | 16.5 | 0.12 | 2.66 | 2.92 | 95 | 1011.4 |
| 20260502013910 | 58 | 24 | 9.6 | 14.8 | 0.13 | 2.66 | 2.92 | 95 | 1011.4 |
| 20260502013810 | 58 | 337 | 7.0 | 11.3 | 0.13 | 2.66 | 2.91 | 96 | 1011.3 |
| 20260502013709 | 58 | 11 | 6.1 | 13.0 | 0.12 | 2.66 | 2.91 | 96 | 1011.4 |
| 20260502013609 | 58 | 13 | 6.1 | 13.9 | 0.12 | 2.66 | 2.91 | 96 | 1011.4 |
| 20260502013509 | 58 | 11 | 5.2 | 13.9 | 0.13 | 2.66 | 2.91 | 96 | 1011.4 |
| 20260502013410 | 58 | 8 | 7.0 | 13.9 | 0.12 | 2.66 | 2.90 | 95 | 1011.4 |
| 20260502013310 | 58 | 8 | 7.0 | 13.9 | 0.12 | 2.66 | 2.90 | 95 | 1011.3 |
| 20260502013210 | 58 | 8 | 7.0 | 13.9 | 0.12 | 2.66 | 2.90 | 95 | 1011.4 |
| 20260502013110 | 58 | 8 | 7.0 | 13.9 | 0.12 | 2.66 | 2.90 | 95 | 1011.2 |
| 20260502013010 | 58 | 0 | 7.0 | 13.9 | 0.12 | 2.66 | 2.90 | 95 | 1011.2 |
| 20260502012909 | 58 | 338 | 7.0 | 13.9 | 0.13 | 2.66 | 2.90 | 95 | 1011.2 |
| 20260502012808 | 58 | 0 | 7.8 | 13.9 | 0.12 | 2.66 | 2.89 | 95 | 1011.1 |
| 20260502012710 | 58 | 41 | 8.7 | 13.9 | 0.12 | 2.66 | 2.89 | 95 | 1011.1 |
| 20260502012608 | 58 | 4 | 7.0 | 10.4 | 0.12 | 2.66 | 2.89 | 95 | 1011.2 |
| 20260502012508 | 58 | 344 | 5.2 | 9.6 | 0.12 | 2.66 | 2.88 | 96 | 1011.3 |
| 20260502012405 | 58 | 41 | 3.5 | 9.6 | 0.11 | 2.66 | 2.88 | 96 | 1011.3 |
| 20260502012306 | 58 | 0 | 2.6 | 9.6 | 0.12 | 2.66 | 2.88 | 96 | 1011.4 |
| 20260502012203 | 58 | 21 | 3.5 | 9.6 | 0.12 | 2.66 | 2.88 | 96 | 1011.4 |
| 20260502012102 | 58 | 24 | 5.2 | 9.6 | 0.12 | 2.66 | 2.88 | 95 | 1011.4 |
| 20260502012004 | 58 | 20 | 6.1 | 9.6 | 0.12 | 2.66 | 2.87 | 95 | 1011.4 |
| 20260502011904 | 58 | 54 | 5.2 | 9.6 | 0.11 | 2.66 | 2.87 | 96 | 1011.4 |
| 20260502011801 | 58 | 13 | 5.2 | 9.6 | 0.11 | 2.66 | 2.87 | 95 | 1011.4 |
| 20260502011704 | 58 | 1 | 4.3 | 8.7 | 0.11 | 2.66 | 2.87 | 95 | 1011.6 |
| 20260502011603 | 58 | 11 | 3.5 | 9.6 | 0.11 | 2.66 | 2.87 | 95 | 1011.7 |
| 20260502011503 | 58 | 334 | 3.5 | 9.6 | 0.11 | 2.66 | 2.87 | 95 | 1011.8 |
| 20260502011401 | 58 | 358 | 3.5 | 9.6 | 0.12 | 2.66 | 2.87 | 95 | 1011.8 |
| 20260502011302 | 58 | 358 | 4.3 | 9.6 | 0.12 | 2.66 | 2.87 | 95 | 1011.9 |
| 20260502011202 | 58 | 340 | 4.3 | 9.6 | 0.12 | 2.66 | 2.87 | 95 | 1011.9 |
| 20260502011104 | 58 | 333 | 5.2 | 9.6 | 0.12 | 2.66 | 2.87 | 95 | 1011.9 |
| 20260502011002 | 58 | 331 | 5.2 | 9.6 | 0.12 | 2.66 | 2.87 | 95 | 1011.7 |
| 20260502010904 | 58 | 333 | 5.2 | 9.6 | 0.13 | 2.66 | 2.87 | 95 | 1011.6 |
| 20260502010802 | 58 | 350 | 5.2 | 10.4 | 0.13 | 2.66 | 2.87 | 95 | 1011.6 |
| 20260502010703 | 58 | 0 | 7.0 | 10.4 | 0.13 | 2.66 | 2.86 | 95 | 1011.5 |
| 20260502010603 | 58 | 324 | 5.2 | 10.4 | 0.12 | 2.66 | 2.86 | 95 | 1011.5 |
| 20260502010503 | 58 | 324 | 5.2 | 13.0 | 0.13 | 2.66 | 2.86 | 95 | 1011.4 |
| 20260502010403 | 58 | 324 | 5.2 | 13.0 | 0.13 | 2.66 | 2.86 | 95 | 1011.4 |
| 20260502010303 | 58 | 324 | 5.2 | 13.0 | 0.13 | 2.66 | 2.86 | 95 | 1011.4 |
| 20260502010203 | 58 | 312 | 5.2 | 13.0 | 0.13 | 2.66 | 2.86 | 95 | 1011.2 |
| 20260502010004 | 58 | 353 | 6.1 | 13.9 | 0.14 | 2.52 | 2.86 | 95 | 1011.0 |
| 20260502005903 | 58 | 350 | 6.1 | 13.9 | 0.14 | 2.52 | 2.86 | 95 | 1010.8 |
| 20260502005802 | 58 | 358 | 5.2 | 13.9 | 0.14 | 2.52 | 2.86 | 95 | 1010.6 |
| 20260502005702 | 58 | 324 | 7.8 | 13.9 | 0.14 | 2.52 | 2.86 | 95 | 1010.4 |
| 20260502005603 | 58 | 18 | 8.7 | 13.9 | 0.14 | 2.52 | 2.85 | 95 | 1010.2 |
| 20260502005503 | 58 | 4 | 7.8 | 13.9 | 0.13 | 2.52 | 2.85 | 95 | 1010.2 |
| 20260502005402 | 58 | 0 | 7.8 | 13.9 | 0.13 | 2.52 | 2.85 | 95 | 1010.1 |
| 20260502005305 | 58 | 6 | 7.8 | 13.9 | 0.13 | 2.52 | 2.85 | 95 | 1009.9 |
| 20260502005205 | 58 | 11 | 7.0 | 13.9 | 0.12 | 2.52 | 2.84 | 95 | 1010.0 |
| 20260502005103 | 58 | 31 | 6.1 | 12.2 | 0.12 | 2.52 | 2.84 | 96 | 1009.9 |
| 20260502005004 | 58 | 18 | 5.2 | 12.2 | 0.12 | 2.52 | 2.83 | 95 | 1010.0 |
| 20260502004902 | 58 | 358 | 5.2 | 12.2 | 0.11 | 2.52 | 2.83 | 95 | 1009.9 |
| 20260502004803 | 58 | 8 | 4.3 | 12.2 | 0.11 | 2.52 | 2.82 | 95 | 1010.0 |
| 20260502004704 | 58 | 0 | 6.1 | 12.2 | 0.10 | 2.52 | 2.82 | 95 | 1009.9 |
| 20260502004602 | 58 | 13 | 6.1 | 12.2 | 0.10 | 2.52 | 2.82 | 95 | 1009.9 |
| 20260502004504 | 58 | 1 | 6.1 | 11.3 | 0.10 | 2.52 | 2.82 | 95 | 1010.0 |
| 20260502004403 | 59 | 31 | 7.0 | 13.0 | 0.10 | 2.52 | 2.81 | 95 | 1010.1 |
| 20260502004304 | 59 | 11 | 7.8 | 13.0 | 0.09 | 2.52 | 2.81 | 95 | 1010.1 |
| 20260502004202 | 59 | 0 | 6.1 | 13.0 | 0.09 | 2.52 | 2.80 | 96 | 1010.3 |
| 20260502004102 | 59 | 0 | 5.2 | 13.0 | 0.08 | 2.52 | 2.80 | 95 | 1010.3 |
| 20260502004004 | 58 | 0 | 6.1 | 13.0 | 0.08 | 2.52 | 2.79 | 95 | 1010.4 |
| 20260502003903 | 58 | 27 | 6.1 | 13.0 | 0.07 | 2.52 | 2.79 | 95 | 1010.4 |
| 20260502003803 | 58 | 330 | 7.0 | 13.0 | 0.08 | 2.52 | 2.79 | 95 | 1010.4 |
| 20260502003702 | 58 | 329 | 6.1 | 13.0 | 0.08 | 2.52 | 2.79 | 95 | 1010.3 |
| 20260502003602 | 58 | 358 | 7.0 | 13.0 | 0.08 | 2.52 | 2.78 | 95 | 1010.2 |
| 20260502003503 | 58 | 11 | 7.0 | 13.0 | 0.07 | 2.52 | 2.78 | 95 | 1010.1 |
| 20260502003402 | 58 | 358 | 7.0 | 11.3 | 0.07 | 2.52 | 2.78 | 95 | 1010.1 |
| 20260502003302 | 59 | 353 | 6.1 | 11.3 | 0.08 | 2.52 | 2.78 | 95 | 1010.2 |
| 20260502003201 | 59 | 347 | 5.2 | 13.9 | 0.08 | 2.52 | 2.78 | 95 | 1010.2 |
| 20260502003102 | 59 | 0 | 5.2 | 13.9 | 0.08 | 2.52 | 2.78 | 95 | 1010.2 |
| 20260502003002 | 59 | 7 | 7.0 | 13.9 | 0.08 | 2.52 | 2.77 | 95 | 1010.3 |
| 20260502002902 | 59 | 0 | 6.1 | 13.9 | 0.08 | 2.52 | 2.77 | 95 | 1010.3 |
| 20260502002803 | 59 | 0 | 6.1 | 13.9 | 0.12 | 2.52 | 2.77 | 95 | 1010.3 |
| 20260502002703 | 59 | 299 | 7.0 | 13.9 | 0.12 | 2.52 | 2.77 | 95 | 1010.2 |